GFSNE_850_rhum_000.txt.gz
RH
52 56 59 64 66 66 70 83 95 97 93 91 96 92 83 75 55 62 71 59 48 67 67 73 76 72 72 75 77 76 89 93 84 80 81 81 65 48
55 70 69 72 75 79 84 85 91 100 99 96 93 91 94 93 80 85 80 71 67 63 68 73 75 76 75 74 80 82 85 84 90 87 84 85 61 35
80 73 69 69 72 78 81 81 82 89 99 91 95 86 87 86 95 93 91 89 76 78 72 71 75 79 80 78 83 82 86 91 95 91 89 85 57 20
64 66 78 83 84 82 81 82 86 86 95 100 97 99 91 86 89 87 82 84 84 86 82 77 75 83 88 86 89 92 96 100 99 99 93 75 39 66
71 81 81 78 76 66 74 85 86 86 87 99 100 100 100 96 91 89 93 96 97 82 75 82 81 86 94 80 98 94 98 99 98 100 91 61 20 94
65 62 57 48 39 44 84 88 88 96 100 100 100 99 99 99 100 100 98 96 90 95 97 90 76 83 99 100 97 100 100 100 100 98 80 55 17 68
49 42 36 26 27 74 43 43 68 99 95 100 100 100 98 96 98 99 98 95 88 84 91 95 96 98 91 100 98 84 100 100 100 97 84 40 28 54
41 34 26 19 36 28 13 28 45 97 99 100 100 100 99 100 100 99 100 100 100 89 83 83 94 100 100 100 99 87 98 99 99 86 98 62 94 97
46 36 19 28 83 46 19 23 32 74 99 100 100 99 99 100 100 98 99 98 99 99 100 99 99 100 100 100 99 98 100 100 90 77 70 97 97 95
44 23 20 88 78 51 50 57 51 99 100 99 98 100 100 100 100 100 100 100 99 100 99 100 100 100 100 100 100 100 100 99 93 87 98 99 97 96
60 50 81 92 92 95 97 89 97 97 97 99 100 99 100 100 100 100 98 100 100 100 100 97 100 100 100 100 100 100 100 99 98 95 98 97 96 96
85 90 93 95 97 95 99 99 100 100 99 97 95 86 99 100 100 100 100 100 100 100 99 100 100 100 100 99 99 99 98 98 93 96 97 96 100 97
94 94 85 84 93 94 100 100 100 99 98 100 100 99 100 100 100 100 100 100 100 99 100 100 100 100 99 98 98 98 67 81 93 97 97 99 96 97
96 90 91 90 90 100 100 99 98 98 98 98 100 99 99 98 99 99 100 99 100 100 100 100 99 99 98 92 90 70 46 40 45 54 52 49 51 87
94 99 92 96 94 100 100 100 98 99 98 100 100 98 98 99 99 100 99 99 100 100 100 99 100 99 99 95 16 21 31 32 30 24 23 24 25 26
94 92 92 96 97 100 95 95 100 99 98 98 99 96 97 98 99 98 98 98 99 98 98 99 98 95 31 16 13 18 21 18 21 22 24 30 38 45
87 88 84 86 86 87 84 96 100 100 100 99 97 97 98 97 97 97 98 98 98 97 97 97 71 24 24 20 17 17 18 21 34 39 43 44 46 52
90 89 92 92 99 96 100 100 98 100 97 97 97 97 97 97 97 97 97 97 97 97 96 46 30 30 22 18 17 20 32 41 46 49 53 59 59 64
83 95 96 95 96 100 100 100 99 97 97 97 97 96 96 96 97 97 96 96 97 95 43 40 31 18 16 18 22 30 41 50 55 56 61 66 71 75
94 93 95 96 100 100 100 98 94 96 96 96 96 96 96 96 96 96 96 97 96 53 48 40 25 19 17 22 41 43 51 57 62 71 78 85 84 85
98 93 94 94 100 100 87 96 95 97 97 96 96 96 96 96 96 96 96 96 52 49 42 26 22 16 22 41 50 67 79 83 84 88 94 98 94 90
86 82 84 93 100 86 97 96 95 96 96 96 96 96 96 96 96 97 92 53 55 40 25 20 13 32 42 62 80 91 92 92 88 87 88 88 99 97
78 87 88 97 99 86 98 96 96 96 96 96 96 96 96 96 98 85 57 51 33 22 11 20 38 57 80 92 92 89 93 92 94 100 100 100 100 98

GFSNE_850_rhum_003.txt.gz
RH
59 63 76 76 74 73 78 85 97 98 89 86 88 88 86 85 86 82 79 79 65 60 57 66 54 53 66 76 78 80 71 73 76 82 94 93 89 84
78 68 63 63 66 71 79 83 85 94 98 92 94 96 90 85 78 73 70 72 78 77 73 75 71 72 64 75 78 74 78 73 78 87 97 100 100 88
61 62 65 77 79 73 72 72 69 76 100 92 96 93 93 97 97 92 81 77 72 70 79 78 80 85 85 75 84 79 75 76 79 85 100 100 100 97
49 58 66 59 44 38 37 43 46 68 99 100 89 98 100 96 91 93 93 93 89 78 75 77 83 89 95 97 94 90 83 80 81 86 95 100 100 98
44 65 75 46 41 37 28 78 85 31 32 84 92 94 92 100 96 90 92 93 82 94 89 86 84 93 84 100 88 97 93 91 92 94 100 100 100 100
60 74 55 52 43 28 55 98 71 34 63 91 89 95 95 95 99 100 95 100 95 79 83 77 85 91 97 83 81 92 100 100 99 100 100 100 99 96
62 50 43 42 40 49 83 66 78 74 94 96 98 99 98 95 100 100 99 98 99 97 83 75 71 93 93 89 87 89 100 100 100 100 97 98 99 99
45 39 36 31 29 62 53 51 91 100 96 99 94 100 99 100 100 100 100 100 99 100 100 97 83 80 77 82 89 86 100 100 100 100 100 100 100 99
48 54 42 48 59 79 80 90 96 97 92 100 99 96 99 99 97 100 100 100 100 98 100 99 98 79 92 88 94 91 100 100 100 100 100 100 100 96
78 70 80 90 84 88 86 89 94 81 59 93 100 99 98 96 100 100 100 100 98 98 100 100 100 98 98 98 100 100 100 100 100 100 98 100 100 98
78 87 94 91 92 88 87 90 86 88 88 96 98 95 97 98 100 100 100 100 100 100 99 100 99 100 100 100 100 100 100 100 100 100 100 99 98 96
98 95 86 93 89 91 88 94 98 96 99 94 95 98 100 98 100 100 100 100 100 100 97 100 97 100 100 100 100 99 100 100 100 99 98 98 96 97
97 92 86 92 97 89 92 97 97 97 86 94 96 88 94 100 100 99 99 99 99 100 100 100 100 100 100 98 99 99 99 99 98 98 98 97 95 98
94 93 94 97 89 87 88 88 94 97 93 98 98 94 98 100 98 98 97 98 98 99 99 100 100 100 99 97 96 97 97 98 97 96 96 98 98 100
89 100 93 90 93 90 95 97 100 95 97 98 98 96 97 99 97 96 97 97 97 98 99 99 99 99 99 98 95 97 97 96 90 92 90 85 94 99
97 97 76 82 96 93 96 100 100 100 100 98 97 95 97 98 97 97 97 97 97 97 97 97 98 98 98 98 98 97 86 30 39 46 63 72 74 59
96 83 69 92 94 99 96 95 95 100 100 94 96 97 98 95 95 97 96 97 97 96 97 97 97 84 36 28 12 19 24 17 29 31 28 26 26 26
90 83 84 100 100 100 95 97 100 99 95 94 97 98 97 96 96 96 96 96 97 96 96 95 44 24 23 23 23 23 22 20 28 26 30 40 47 50
89 88 99 100 100 99 97 100 100 95 96 96 97 96 96 96 96 96 96 96 96 96 84 38 36 25 18 25 26 27 34 43 48 51 50 53 58 66
99 100 100 100 100 100 98 100 96 97 96 95 97 96 96 96 96 96 96 96 96 89 79 47 24 19 20 32 39 41 47 52 54 56 59 67 76 84
99 96 98 100 98 89 100 100 99 97 96 96 96 96 96 96 96 96 96 96 85 75 51 30 24 17 35 42 51 60 63 67 71 76 85 92 97 99
90 83 97 93 87 95 99 97 96 95 95 96 96 96 96 96 96 96 95 84 67 49 33 16 24 39 53 72 84 90 96 100 100 96 93 97 96 95
84 96 97 87 82 91 94 97 96 96 96 96 96 95 96 97 98 80 63 49 34 19 19 43 64 92 98 98 94 95 90 96 100 100 100 100 98 94

GFSNE_850_rhum_009.txt.gz
RH
7 11 12 16 49 84 92 97 84 95 78 55 60 62 86 88 62 48 44 39 69 82 88 89 84 79 79 81 81 79 75 73 99 99 100 94 89 85
13 14 25 50 68 82 76 79 86 84 79 63 57 75 93 70 55 63 51 41 36 33 42 56 70 77 81 88 90 89 91 79 91 88 98 95 99 92
18 41 75 78 57 43 65 62 62 58 70 53 81 91 84 68 77 81 62 30 40 38 41 42 63 74 92 88 95 92 94 95 98 94 100 99 98 100
50 75 76 59 54 59 61 71 78 84 81 91 94 84 80 87 92 84 80 81 65 35 46 71 72 92 81 91 92 84 92 92 95 98 100 81 93 96
50 69 63 65 65 72 80 85 89 87 89 89 91 86 87 91 86 87 87 70 80 80 95 86 98 83 85 83 91 88 77 78 89 95 95 96 91 89
60 69 72 77 77 84 88 91 89 91 91 92 91 83 84 81 85 83 83 84 84 94 95 94 62 74 85 79 78 86 82 82 83 98 100 97 98 93
73 75 78 84 90 90 92 90 94 90 91 88 92 94 88 84 88 93 100 100 96 96 94 94 92 88 84 90 99 100 100 92 78 77 85 94 93 92
84 79 84 86 90 93 96 92 89 93 96 98 95 96 94 88 100 100 100 100 98 88 98 99 99 94 83 75 76 85 83 70 69 67 77 71 84 79
89 88 86 92 97 93 90 89 95 95 86 89 97 98 93 83 100 99 98 100 99 100 100 99 100 99 98 88 90 98 96 91 76 76 77 75 79 83
90 90 95 96 95 90 96 97 87 59 82 96 95 94 96 92 95 97 99 97 96 100 100 98 95 82 84 100 98 92 95 89 78 73 72 87 81 78
90 96 100 90 88 90 97 93 80 85 80 96 93 94 95 99 100 97 95 100 98 100 99 97 97 99 98 98 97 93 92 77 73 77 77 80 99 95
99 100 92 84 89 95 97 94 92 83 98 94 87 73 81 84 100 98 96 97 99 100 97 97 93 96 98 97 98 97 98 87 90 100 100 97 100 100
93 94 87 90 97 97 89 87 92 91 92 79 80 96 99 95 97 97 96 96 98 99 95 98 98 95 97 98 98 99 100 99 100 100 100 100 100 100
96 86 93 97 91 90 86 92 92 95 81 100 100 100 100 96 97 92 94 96 96 97 97 97 96 97 98 98 99 99 100 100 100 100 100 100 100 100
91 100 88 77 82 89 91 91 95 98 100 97 100 98 99 97 92 96 94 97 97 96 96 96 97 96 98 96 98 98 99 99 100 99 99 98 99 98
96 86 78 80 94 96 90 93 99 100 100 97 96 95 100 100 100 97 98 94 95 95 97 96 96 96 98 98 97 97 98 98 99 99 99 99 98 98
84 83 82 99 95 92 94 99 100 100 100 99 100 97 99 100 98 97 96 95 97 96 96 96 96 96 95 96 96 97 97 98 98 98 98 98 98 96
88 88 92 98 99 100 100 100 100 100 99 97 98 99 100 98 96 96 96 96 96 95 96 96 96 96 96 96 97 97 98 98 98 98 98 96 98 98
95 94 100 99 100 100 100 100 100 99 97 98 98 98 97 96 97 96 97 97 96 96 96 94 79 40 96 98 96 97 96 97 97 97 97 97 96 98
99 100 100 100 100 100 100 100 97 96 96 97 96 96 96 97 96 96 96 96 96 94 47 31 29 29 42 62 48 45 56 85 97 90 88 90 89 90
100 99 100 100 100 99 92 98 97 97 98 96 96 96 96 96 96 96 96 97 92 68 40 29 42 47 42 41 46 63 59 65 51 36 38 44 48 50
96 100 100 100 94 86 94 96 95 96 96 96 96 97 100 94 90 85 74 64 49 34 28 46 56 59 57 48 58 70 74 72 68 66 65 64 66 70
100 100 100 92 78 83 96 96 96 96 96 96 99 100 93 74 58 38 29 30 61 80 84 91 97 94 88 86 76 72 71 80 84 82 92 96 96 90

GFSNE_850_rhum_015.txt.gz
RH
33 35 40 44 45 49 52 62 58 56 54 50 52 50 56 55 62 61 65 60 65 70 68 72 79 86 81 84 90 92 91 94 91 92 96 68 71 74
36 39 43 46 47 51 53 56 56 57 59 58 57 59 63 72 69 67 74 69 67 68 67 66 74 74 78 83 94 97 88 90 99 95 98 96 80 72
40 44 46 49 51 52 57 59 60 62 64 63 64 70 76 71 72 74 76 77 71 64 65 68 67 72 74 80 84 87 87 90 95 100 99 99 100 84
46 49 52 55 58 63 64 64 66 68 69 72 77 79 77 76 79 81 74 64 66 66 62 63 74 84 77 79 82 97 95 98 100 99 96 71 81 90
55 58 60 63 65 65 67 72 73 78 82 87 87 83 82 89 86 81 70 64 65 70 76 73 69 82 90 90 89 91 93 90 98 84 85 84 68 92
68 67 67 64 64 68 72 80 88 89 90 96 88 91 95 84 87 78 72 69 69 75 74 77 80 82 88 90 94 80 92 90 50 51 82 100 92 89
75 69 64 63 68 72 73 91 94 96 98 96 100 98 96 85 81 76 74 81 85 90 89 84 86 81 77 81 82 86 89 95 88 95 100 94 99 99
76 69 65 64 64 70 79 82 90 85 97 100 98 98 92 85 74 84 94 96 94 88 88 87 93 94 86 85 95 99 99 100 100 99 96 81 90 99
72 67 67 68 74 72 82 86 87 90 96 94 96 96 80 86 93 100 100 94 91 86 100 98 96 97 100 90 85 92 100 96 100 100 96 76 79 94
71 71 73 78 77 84 96 90 97 91 83 83 89 87 88 94 99 95 94 98 99 94 95 99 90 97 81 83 69 86 93 98 98 99 99 100 98 91
79 82 87 94 84 92 96 95 90 86 83 85 88 85 86 87 91 95 96 100 97 97 94 98 96 97 82 87 70 88 99 98 98 97 92 92 91 92
90 90 84 84 90 98 93 91 95 89 98 91 87 83 86 88 97 94 96 98 98 98 90 98 96 97 97 85 93 88 90 95 94 94 94 81 78 76
93 93 92 86 95 88 79 88 90 93 96 91 86 88 94 97 95 94 95 97 98 99 91 99 97 97 99 98 95 92 96 95 97 100 100 93 81 77
96 96 93 99 85 77 82 81 85 90 82 90 96 99 100 99 93 91 87 90 94 98 93 97 97 99 98 97 95 90 93 98 99 100 100 100 100 100
93 92 96 84 78 81 83 85 87 87 97 97 99 100 94 94 96 96 93 91 92 87 94 95 98 98 98 95 98 98 97 95 99 100 100 100 100 100
96 97 82 79 81 85 88 88 92 95 98 97 97 92 94 97 96 96 96 96 96 88 97 96 95 95 96 95 98 94 98 97 98 100 100 100 100 100
95 92 85 86 90 94 91 93 95 100 96 96 96 96 96 97 94 95 96 96 97 96 95 94 95 95 98 97 95 97 94 97 98 99 100 99 100 100
94 91 90 96 97 96 97 96 100 100 96 96 96 96 96 96 95 95 96 97 96 95 95 96 95 94 94 96 96 96 96 98 98 99 99 98 98 99
92 93 99 97 95 96 100 99 99 96 96 96 96 96 96 96 96 96 96 97 95 93 81 86 96 96 96 96 97 96 96 97 98 98 98 98 98 99
94 97 96 96 96 99 96 98 96 95 96 95 96 99 100 100 100 94 86 89 89 57 64 78 89 96 95 96 96 97 97 97 98 97 97 96 99 99
95 94 92 93 96 96 97 96 96 96 97 97 100 99 95 96 96 95 84 91 100 96 82 91 72 90 96 96 96 96 97 98 97 95 97 95 95 97
92 91 94 97 96 96 96 96 95 96 98 100 99 95 96 96 96 95 95 95 96 97 98 100 75 76 81 95 95 96 96 96 97 97 97 91 92 96
94 97 98 96 96 96 96 98 98 99 100 96 96 97 98 96 96 96 96 96 97 97 96 96 84 84 83 76 71 83 80 75 64 53 71 80 70 79

GFSNE_850_rhum_018.txt.gz
RH
25 30 30 36 41 48 50 50 57 63 63 60 60 61 66 64 63 77 70 70 69 68 72 73 78 76 71 77 77 71 72 79 79 94 100 88 88 98
31 28 34 43 49 51 54 56 59 65 69 64 69 70 64 71 78 74 76 75 76 79 75 70 68 67 69 68 73 65 70 76 78 82 83 81 83 93
28 30 45 50 57 59 61 66 68 69 74 75 68 69 79 79 64 81 84 87 81 78 73 71 68 65 65 69 77 80 86 78 82 78 85 84 88 97
29 38 52 64 64 66 68 66 69 69 72 78 84 90 85 78 86 86 91 90 88 72 69 68 67 69 82 78 71 69 73 81 84 96 96 93 95 99
42 57 61 69 72 69 66 67 71 81 94 98 94 88 95 90 84 93 96 86 78 71 64 73 77 79 78 75 81 82 80 90 98 98 98 97 100 99
58 57 74 77 70 69 70 74 84 97 95 98 100 97 94 91 98 92 86 77 71 82 80 91 89 81 84 83 83 85 93 94 88 87 87 95 95 94
61 74 82 76 73 72 73 85 89 87 97 99 98 96 96 91 95 93 85 77 86 88 98 86 85 88 80 91 93 95 96 93 93 90 98 99 97 92
77 85 78 74 74 78 80 80 90 97 95 98 99 91 81 82 98 100 96 100 96 91 87 95 100 95 90 92 99 100 98 97 90 87 98 100 99 98
87 80 82 79 77 79 81 96 96 99 96 85 84 89 97 96 94 100 99 100 98 97 100 100 94 98 97 75 90 96 97 97 93 93 100 100 100 100
79 85 89 89 86 90 97 96 97 87 88 90 86 97 97 97 97 96 98 96 97 98 100 100 98 92 85 89 97 98 100 98 98 98 98 98 99 100
91 97 96 90 93 92 95 96 96 93 73 87 100 96 87 89 93 94 97 100 97 96 92 98 95 95 91 90 80 90 97 97 98 100 100 98 94 90
98 97 98 92 86 96 95 95 97 82 94 97 86 68 71 85 100 97 96 98 99 99 91 100 98 97 98 86 93 93 94 92 98 98 97 94 83 81
95 91 94 87 97 94 85 95 86 94 97 80 73 85 97 97 95 96 97 98 97 98 76 100 97 96 100 98 94 97 90 92 96 97 99 99 82 77
96 90 80 98 89 86 87 85 88 89 77 89 100 100 100 96 94 93 94 94 98 98 95 98 97 100 97 97 98 77 86 96 97 98 99 100 96 86
90 94 100 93 88 85 89 90 91 83 99 97 100 96 97 95 94 94 90 94 94 96 96 98 98 98 94 91 97 86 96 91 98 99 100 100 100 100
93 97 95 88 84 92 92 87 86 98 98 97 97 96 95 96 95 97 96 94 97 94 94 95 95 95 90 89 98 94 96 97 98 99 100 100 100 100
96 92 78 86 97 98 97 92 97 98 96 96 96 96 96 96 92 94 96 95 98 96 94 92 96 96 91 98 95 96 96 97 98 99 99 99 99 99
94 84 97 100 100 100 100 96 96 98 96 96 96 96 97 96 94 93 93 95 95 94 94 96 93 88 96 96 97 96 97 98 99 98 99 99 99 99
92 98 100 100 100 100 98 98 97 96 96 96 97 97 96 94 95 94 96 96 94 96 96 96 96 96 94 96 97 97 97 98 99 98 98 98 98 99
95 100 100 100 98 98 97 97 96 96 96 99 96 95 96 97 96 96 97 96 96 95 96 92 94 95 96 96 96 98 98 98 98 98 98 98 99 99
100 97 98 98 96 97 97 96 97 99 100 96 95 97 98 99 97 96 96 97 97 96 97 96 76 96 95 95 97 97 97 98 98 98 100 99 99 100
97 99 100 96 96 97 96 97 98 96 95 96 96 97 97 98 97 96 97 97 96 97 97 93 84 88 96 94 96 96 96 97 97 97 96 95 97 99
100 100 94 95 96 97 98 98 98 94 96 96 96 96 96 96 97 96 98 97 96 97 97 96 92 78 92 95 95 96 96 96 97 95 94 97 97 98

GFSNE_850_rhum_021.txt.gz
RH
18 23 25 23 20 32 46 53 62 72 67 66 70 68 73 69 69 76 78 72 73 76 76 75 76 78 81 74 69 69 72 77 71 83 75 68 78 70
21 27 28 26 23 36 66 66 64 71 79 70 70 72 65 71 75 80 74 80 78 81 79 79 81 87 74 80 72 82 68 69 71 72 76 85 89 94
30 34 34 30 37 55 67 72 72 72 74 69 71 70 73 71 57 70 86 92 94 92 86 88 79 72 73 69 69 71 77 82 87 82 79 89 96 96
41 45 44 41 61 71 75 74 73 72 77 86 79 83 79 81 75 82 98 95 84 79 86 79 74 72 70 77 78 83 87 76 76 80 83 72 77 98
59 59 53 61 74 80 81 78 78 88 97 98 95 79 94 92 97 96 81 85 80 81 77 74 72 79 85 90 85 78 79 86 89 82 82 92 98 99
62 64 60 66 87 87 80 81 91 90 86 89 95 95 97 94 88 76 73 80 93 89 86 87 91 93 82 84 88 89 91 92 90 83 84 96 96 94
67 69 67 79 87 82 83 85 87 95 98 99 97 98 93 84 82 85 94 97 94 99 96 96 92 91 88 90 92 95 100 97 98 99 97 92 97 96
74 75 75 80 85 84 87 88 92 97 95 98 98 99 88 92 94 99 98 97 94 92 93 97 100 99 90 87 97 100 97 91 94 98 98 97 94 95
78 80 86 86 92 93 88 94 92 96 98 93 94 97 100 93 97 97 100 100 98 96 100 100 98 100 92 87 97 96 96 100 100 100 100 97 98 94
80 92 97 95 94 94 95 98 95 95 92 94 94 96 97 97 95 98 97 99 100 99 97 100 97 99 76 88 87 98 100 99 96 100 100 99 100 100
90 97 100 96 93 86 94 97 95 89 70 90 100 99 91 93 96 96 95 100 97 97 80 100 92 94 100 83 65 78 94 100 99 100 100 100 100 100
86 85 90 92 85 96 97 97 96 76 95 98 83 69 68 83 100 99 96 98 100 98 68 98 98 97 97 88 80 86 85 90 100 100 100 100 100 100
88 91 80 89 98 89 88 91 89 96 96 79 76 88 96 97 93 95 96 97 97 97 82 99 98 97 100 98 93 88 85 91 96 97 97 98 98 98
97 83 88 98 90 90 91 92 91 94 82 94 100 100 100 95 94 95 96 96 97 98 96 96 96 98 98 98 94 74 89 96 97 96 98 98 98 90
90 100 100 95 92 90 96 99 100 89 95 98 100 100 98 95 93 93 92 94 87 92 95 97 96 96 99 98 96 92 97 91 97 98 98 99 100 100
94 96 88 84 94 95 86 87 96 97 98 96 98 94 94 94 95 97 96 94 94 86 90 97 98 98 97 88 95 94 97 97 99 99 100 100 100 100
95 86 76 93 96 90 93 96 98 99 97 97 96 95 95 96 96 95 96 95 98 96 91 92 96 97 89 85 92 97 96 98 98 99 98 99 99 100
94 92 100 100 100 100 100 99 94 97 96 96 96 97 97 97 96 95 95 96 97 95 96 96 95 91 90 95 97 96 98 98 98 98 98 99 98 99
97 99 100 100 100 100 99 100 98 94 97 95 97 97 97 97 100 96 96 96 95 96 96 93 96 96 94 96 98 98 98 98 98 98 98 98 98 99
98 100 100 98 100 99 97 97 95 94 93 96 97 97 97 99 99 97 96 96 96 96 93 85 94 96 96 97 97 97 98 98 98 98 98 99 99 99
98 95 94 98 97 97 96 96 97 96 98 97 96 97 97 98 96 98 96 96 97 96 95 81 96 97 96 95 97 97 97 98 98 97 97 98 99 99
94 95 90 94 96 96 97 98 96 95 95 96 96 96 98 98 96 97 97 97 97 96 96 85 95 96 95 93 97 97 98 97 97 96 96 94 98 99
95 95 87 95 96 96 100 98 97 95 96 98 98 96 97 96 97 97 96 97 97 96 95 82 76 96 96 95 95 96 97 96 95 99 97 95 96 97

GFSNE_850_rhum_024.txt.gz
RH
16 19 23 25 27 23 22 39 76 84 77 73 77 71 73 73 70 75 78 82 84 80 80 80 81 83 78 78 79 85 94 89 94 82 74 79 78 79
21 26 30 33 30 24 36 57 72 78 89 73 75 77 77 81 81 85 89 94 82 84 85 82 91 90 96 95 94 83 83 81 76 69 71 72 62 78
30 37 42 44 38 39 47 64 75 81 90 77 76 78 83 70 76 93 99 94 91 89 80 76 76 74 77 80 81 79 73 71 79 84 85 89 89 90
41 50 53 54 51 50 58 76 84 82 90 98 80 85 77 72 87 92 95 82 92 76 74 78 86 76 75 78 77 79 88 82 91 97 95 89 86 84
53 61 63 66 63 62 83 85 88 93 91 91 88 73 85 94 98 90 74 74 72 72 80 82 84 84 84 91 93 93 97 89 80 80 81 79 83 89
62 65 69 72 72 90 91 89 98 93 93 98 98 96 93 98 88 85 76 79 76 90 97 91 92 90 90 89 88 87 89 92 90 87 87 93 88 81
66 70 77 77 89 89 90 96 95 96 97 98 96 96 95 85 87 84 89 86 98 95 85 89 92 92 95 94 91 93 97 96 97 98 98 99 98 98
74 79 78 80 90 91 92 90 92 97 89 98 97 93 93 94 90 97 98 97 90 90 89 98 100 95 90 83 97 100 100 98 95 98 98 96 92 95
82 76 79 88 92 86 90 94 92 95 97 94 93 87 100 92 98 100 100 100 100 94 99 100 90 100 78 85 86 99 100 100 97 98 100 100 100 100
74 76 92 87 85 92 95 95 95 82 78 86 94 97 98 96 97 99 98 100 99 92 98 97 86 92 82 80 71 78 100 100 100 99 98 99 100 100
74 94 95 95 90 93 97 95 95 84 67 90 100 97 94 96 100 96 93 100 99 94 71 100 82 91 96 86 73 71 73 99 100 100 100 100 99 98
92 93 94 93 92 99 94 98 94 75 98 98 84 69 68 76 100 99 96 98 100 100 74 98 96 97 96 87 82 87 83 73 96 98 97 98 100 99
93 90 83 97 98 90 91 94 94 96 94 80 74 80 87 90 92 95 97 97 97 97 80 99 96 99 100 97 92 85 80 78 95 96 97 97 98 97
97 85 92 98 94 94 98 100 99 99 83 88 97 99 95 93 94 95 96 95 96 97 95 97 97 99 98 99 100 74 75 95 97 97 97 97 98 98
88 100 100 97 88 71 94 100 100 91 94 98 100 93 95 93 93 94 91 94 92 94 95 96 97 97 100 99 99 80 96 84 95 98 98 98 98 98
96 96 83 74 72 86 78 82 89 99 99 98 96 92 92 92 93 97 96 94 94 85 86 96 96 98 96 92 92 94 96 97 98 98 98 99 100 100
95 87 72 75 74 81 83 88 92 97 99 95 94 96 92 95 93 94 95 95 96 96 93 87 93 97 95 96 95 97 97 98 98 98 98 98 100 100
97 82 85 90 91 95 97 96 93 95 95 94 93 95 96 97 95 94 95 96 96 96 96 95 94 88 92 92 97 98 98 98 98 98 98 98 99 100
87 90 93 93 95 96 99 100 97 92 95 93 95 96 97 94 98 96 95 96 94 98 96 96 96 96 94 97 98 98 98 98 98 98 98 98 99 98
91 94 93 91 95 98 97 97 95 93 92 92 96 97 96 97 95 96 96 97 96 95 83 95 96 96 97 97 96 98 98 97 97 98 98 98 99 99
92 89 87 91 97 99 98 97 97 96 97 97 96 97 96 97 97 96 96 97 98 95 86 90 97 99 97 94 97 97 98 98 98 97 95 98 99 99
91 88 82 94 98 98 96 96 94 94 95 95 96 97 97 98 98 96 97 97 96 96 92 79 96 97 95 95 98 100 98 98 94 98 97 96 98 99
90 82 92 96 98 97 97 97 96 96 97 98 97 96 98 98 96 97 97 97 97 94 83 70 94 96 97 96 99 100 100 100 95 91 98 98 98 98

GFSNE_850_rhum_027.txt.gz
RH
18 21 26 32 38 38 37 40 63 90 76 72 74 74 81 81 83 80 81 77 84 84 84 82 83 93 92 92 84 91 93 96 94 95 95 96 93 92
19 24 32 41 42 42 46 45 52 71 96 68 76 78 84 92 84 85 74 93 86 86 85 86 78 78 80 78 86 86 84 90 98 94 94 93 94 89
21 36 40 50 53 56 56 55 67 79 91 71 71 72 77 66 72 84 93 95 97 96 91 77 76 79 78 80 92 92 92 86 90 91 88 88 91 88
33 48 52 56 62 67 67 78 82 80 95 95 80 68 66 70 79 95 100 98 85 80 76 78 80 82 86 93 86 87 91 92 89 81 80 82 90 94
47 55 60 69 74 77 83 87 89 98 100 100 96 77 84 93 98 97 82 76 76 77 82 87 90 88 90 85 87 94 96 97 97 98 97 97 93 88
54 63 69 74 78 87 92 92 98 97 94 94 100 100 100 97 90 83 78 80 89 85 92 96 94 88 89 90 91 89 90 90 89 88 90 87 88 90
65 63 67 69 80 90 90 91 89 95 97 100 100 98 97 84 82 80 93 97 98 99 94 90 88 94 96 92 90 92 98 99 98 98 97 97 98 98
55 52 59 65 80 91 93 93 93 92 97 98 92 90 83 87 88 100 99 100 96 94 96 81 92 90 74 78 69 100 100 99 97 98 100 100 99 99
57 63 70 83 84 83 84 95 98 96 99 96 89 89 100 94 97 95 100 100 100 99 100 94 83 87 76 73 75 83 100 100 100 98 97 98 99 97
68 76 91 87 89 94 95 97 81 77 73 84 98 96 98 97 98 100 100 100 99 95 100 98 86 83 80 74 66 66 85 100 100 100 100 98 99 100
79 98 95 95 93 97 96 96 96 76 72 92 100 99 91 96 100 96 94 100 100 98 87 100 87 99 90 79 76 82 99 100 98 100 100 98 98 99
97 91 99 96 95 99 94 97 95 76 98 97 79 70 70 76 96 97 96 98 100 98 86 98 97 100 96 90 85 89 87 83 94 99 98 99 100 99
86 90 84 96 96 93 94 95 93 96 93 85 76 77 84 86 85 88 96 97 96 98 81 99 97 93 100 98 92 83 87 92 95 95 96 97 97 97
96 84 91 99 96 96 92 100 100 100 83 88 92 95 89 86 85 86 90 95 96 97 95 97 96 100 97 99 100 76 86 94 96 93 97 98 98 97
94 97 99 97 78 58 73 100 100 88 98 97 98 88 90 89 87 90 89 91 89 91 95 96 100 98 98 96 97 89 97 82 95 98 98 98 98 98
98 95 81 66 61 68 75 79 88 100 100 100 96 90 91 89 89 95 97 93 92 79 85 96 98 98 95 94 97 95 96 97 95 99 98 98 98 99
99 86 67 66 65 78 82 86 90 93 97 95 94 94 92 94 91 93 95 95 96 96 90 89 93 97 97 97 95 98 97 97 98 98 97 97 99 99
91 75 74 76 81 92 94 93 90 92 95 95 92 96 96 98 96 92 94 97 96 95 96 96 93 83 82 85 98 97 99 98 98 97 97 98 100 100
76 78 82 81 89 95 98 100 98 93 96 95 97 96 98 95 96 96 96 96 93 97 96 96 97 99 98 97 96 99 98 98 97 96 97 98 100 100
78 84 83 84 95 99 100 99 95 93 93 92 96 97 97 99 95 97 98 97 97 96 88 92 95 98 98 97 96 98 98 98 98 97 98 98 98 99
82 83 81 91 98 100 100 97 96 96 97 97 95 97 97 97 94 95 98 96 99 97 91 81 98 98 97 92 96 96 98 98 98 97 94 95 98 100
85 84 80 96 98 98 96 95 93 93 95 97 96 97 96 97 96 97 96 97 98 99 84 74 96 97 93 100 100 100 99 98 97 98 96 98 99 98
85 81 90 97 98 97 96 95 96 96 97 98 97 96 97 96 97 97 96 98 99 97 90 70 83 94 96 99 100 99 98 94 94 98 97 97 97 98

GFSNE_850_rhum_030.txt.gz
RH
17 17 19 26 35 41 47 54 66 77 68 66 66 61 60 75 78 86 79 76 90 87 82 80 80 84 88 83 81 76 78 94 94 88 92 96 94 93
17 18 22 31 40 46 56 64 71 71 91 65 67 74 80 79 75 80 81 92 89 93 92 90 95 88 84 78 78 78 81 87 93 91 93 92 97 98
17 22 25 37 43 52 66 76 77 85 89 62 76 74 74 82 74 87 97 98 94 80 69 92 87 78 77 85 91 91 92 94 94 94 98 97 92 98
20 26 32 42 52 63 74 76 86 83 99 93 82 82 76 61 73 99 99 86 82 85 82 83 81 82 82 85 93 93 94 93 92 90 93 88 87 91
28 35 42 53 58 63 74 89 90 98 100 100 94 88 75 98 97 81 80 78 77 81 86 89 92 95 94 96 95 94 95 97 97 94 93 94 95 98
27 32 41 49 56 85 96 95 99 87 84 94 100 99 98 84 86 78 85 79 89 96 94 97 99 94 93 93 94 93 92 93 93 92 93 92 93 88
33 42 54 62 70 95 95 94 93 91 99 97 97 99 94 86 86 83 100 99 99 100 90 92 88 88 79 74 73 77 97 100 99 96 96 98 99 100
47 58 67 75 78 93 94 96 95 98 96 96 95 100 90 90 86 100 100 100 97 96 99 92 95 93 80 74 75 100 100 100 99 97 97 99 98 98
64 70 76 82 75 79 82 96 98 93 90 94 90 90 98 96 99 97 99 100 100 98 100 90 87 84 77 75 75 96 100 100 100 99 99 100 100 99
72 78 89 80 87 96 93 98 86 78 74 78 96 96 98 98 99 100 97 98 94 88 100 96 86 84 82 79 66 69 96 100 100 100 99 98 98 99
78 92 91 94 92 95 96 97 92 75 70 92 100 99 84 84 98 97 93 100 98 94 78 99 86 99 88 75 74 80 100 100 100 100 100 100 100 99
97 89 85 98 95 100 95 97 95 75 97 98 79 72 70 72 82 94 100 98 100 98 73 98 96 99 95 84 80 75 76 86 97 100 100 100 99 99
88 86 89 94 98 95 97 96 90 96 94 86 76 74 77 82 85 89 96 98 96 96 81 99 95 95 100 96 80 72 85 92 97 92 97 97 97 98
95 92 92 98 99 98 88 98 100 100 84 83 85 86 86 85 86 88 89 92 97 97 95 98 97 98 97 96 99 80 91 87 94 94 97 95 96 97
96 99 100 97 70 60 64 98 92 85 92 94 96 88 88 90 87 91 86 90 87 89 95 97 98 97 97 96 97 93 98 90 86 97 95 98 99 98
98 93 76 66 63 63 76 78 83 89 100 100 97 90 90 89 87 93 95 95 93 80 84 96 97 98 96 95 97 96 97 99 98 98 98 97 97 99
99 78 66 65 63 76 81 82 85 90 97 95 95 94 92 92 89 92 97 96 98 95 85 81 89 95 96 97 94 97 96 99 99 98 96 97 98 100
88 71 71 73 73 89 90 88 88 92 95 97 93 96 96 96 98 92 95 99 98 92 97 94 90 80 72 73 96 97 100 99 98 97 96 99 99 99
68 72 78 76 84 92 93 95 94 92 98 97 97 96 97 97 98 96 97 97 92 95 99 92 95 100 100 97 80 99 98 100 100 98 97 97 99 100
73 79 81 77 90 95 96 97 94 93 95 92 95 98 98 98 97 97 98 98 96 98 93 75 94 97 98 98 97 96 98 97 100 99 96 97 99 100
78 80 77 80 94 97 97 96 96 96 96 96 96 97 97 98 96 99 100 98 100 98 97 76 92 99 98 89 94 94 96 97 97 98 98 96 98 99
80 80 72 90 96 98 97 96 95 96 95 96 96 97 98 98 98 99 98 98 97 99 97 77 76 90 91 97 100 98 96 96 96 96 98 99 99 98
80 73 82 94 97 97 96 97 96 97 97 97 97 97 97 97 98 98 99 98 97 96 95 77 82 90 93 99 96 93 96 96 95 95 96 97 98 99

GFSNE_850_rhum_033.txt.gz
RH
17 17 17 21 25 31 39 49 71 70 63 58 64 72 83 90 88 87 89 91 92 91 90 89 87 87 89 96 95 98 96 93 91 86 88 87 92 99
18 18 20 24 27 32 42 52 60 80 88 64 69 84 90 90 90 95 93 98 96 96 93 90 89 87 91 94 89 88 86 92 92 91 90 94 95 93
20 20 21 27 28 34 40 48 60 79 90 53 86 87 92 92 91 97 100 100 95 92 91 90 91 90 88 89 93 93 94 92 90 93 94 96 98 98
19 19 21 28 28 30 38 45 59 78 92 92 92 94 85 94 99 100 97 89 90 86 88 93 94 92 90 91 91 93 93 94 95 98 98 94 96 95
19 23 27 29 36 44 52 71 86 98 100 100 92 70 98 100 99 88 81 80 86 90 88 96 96 100 100 98 96 93 93 92 96 93 94 92 95 96
20 26 33 44 52 61 92 99 100 98 91 96 96 97 97 84 84 86 88 88 95 94 86 100 99 98 99 99 100 100 100 98 96 94 92 97 98 98
22 30 41 53 62 94 97 96 96 94 89 98 97 96 92 88 88 92 99 98 96 98 87 93 93 85 84 94 97 98 100 100 100 100 98 98 98 97
33 36 48 62 75 100 97 100 97 93 98 98 98 94 86 91 93 100 100 100 97 96 97 92 94 80 85 78 88 100 100 100 100 100 99 99 98 98
34 53 71 82 82 89 87 100 99 98 96 96 92 92 98 93 99 96 97 100 100 97 100 99 83 91 78 74 75 100 100 100 100 100 100 100 100 100
52 68 83 86 94 99 97 98 93 89 95 94 97 96 96 98 98 100 97 98 91 83 100 100 88 92 80 73 63 65 87 100 100 100 100 100 100 99
72 84 91 98 100 94 96 94 97 98 71 90 99 100 90 84 90 99 96 100 92 92 72 100 99 99 82 65 62 69 87 99 98 98 99 99 98 100
99 100 95 100 98 100 96 96 99 84 96 100 91 76 73 72 78 93 96 99 100 100 76 100 93 100 94 72 71 66 82 93 99 100 98 99 99 97
99 97 99 98 99 96 96 99 98 97 99 85 77 75 77 82 83 87 95 97 96 97 81 99 96 93 100 99 73 67 83 91 93 90 87 96 98 98
98 97 95 99 98 98 86 83 100 100 86 84 86 86 88 82 83 86 87 89 94 96 93 97 96 98 97 95 100 74 85 84 95 95 95 93 92 95
96 98 100 93 64 60 58 84 80 82 89 95 96 91 89 87 86 87 84 86 83 84 95 96 98 96 100 98 97 87 97 90 91 99 97 100 98 99
98 96 74 61 61 56 72 77 82 88 99 100 100 94 91 91 87 91 91 91 90 76 79 95 96 99 96 94 99 88 94 99 96 97 98 97 97 99
99 82 64 61 59 67 79 83 86 90 95 95 95 95 92 94 86 89 95 95 96 92 81 78 86 91 76 80 82 88 100 99 97 97 95 98 100 99
93 70 66 69 68 83 90 89 88 92 95 97 95 96 96 93 94 92 96 97 97 90 89 88 84 85 75 62 78 96 95 100 98 97 97 100 100 100
67 68 70 73 75 90 95 96 93 94 97 96 96 94 95 96 97 95 95 95 93 92 93 92 83 100 100 100 73 94 98 97 99 98 98 98 100 100
69 71 74 74 86 94 95 97 95 95 96 93 95 97 97 98 95 95 95 97 95 96 91 89 83 95 100 98 96 88 98 97 97 100 98 97 100 100
72 73 75 80 94 96 98 98 97 96 97 96 96 97 97 98 95 97 97 96 99 97 97 92 89 92 97 90 94 90 86 97 97 98 100 93 95 100
74 74 76 93 96 99 98 97 96 96 96 96 96 97 97 97 97 96 97 97 97 98 100 91 89 92 91 94 89 89 90 90 96 96 96 100 99 98
73 78 94 94 98 98 99 98 97 96 96 96 96 96 97 96 98 98 98 98 96 98 97 94 88 90 86 83 83 84 92 89 95 94 95 97 99 99

GFSNE_850_rhum_036.txt.gz
RH
20 20 20 24 29 39 50 59 60 54 47 43 42 48 56 64 70 75 77 80 85 89 92 91 93 89 87 88 93 97 93 92 96 90 96 98 98 94
22 22 23 27 27 44 59 63 65 63 62 50 51 57 65 71 73 76 75 84 85 89 89 88 90 90 93 91 90 91 93 91 93 94 95 90 88 89
24 23 21 23 33 50 60 64 66 65 65 58 65 69 76 75 71 76 81 86 79 78 83 86 91 93 94 94 95 95 97 98 99 97 96 96 95 96
24 21 23 36 29 47 62 67 69 74 77 78 78 82 78 76 85 91 80 70 70 73 82 91 95 95 97 98 99 96 97 95 98 98 98 98 98 98
22 20 23 31 48 66 72 78 81 80 84 92 89 78 80 89 86 79 74 71 74 78 82 88 92 96 100 99 97 97 96 96 97 97 95 94 96 97
21 22 32 49 70 78 82 84 79 86 84 84 88 83 99 88 76 70 71 76 83 85 86 94 91 94 94 94 96 99 99 100 100 99 98 96 97 96
30 42 60 65 48 78 95 91 88 88 90 88 98 98 85 77 68 75 86 89 86 92 83 88 83 87 86 91 94 96 97 100 100 100 99 99 99 98
58 62 69 79 84 95 95 94 95 96 96 100 100 89 75 72 82 89 95 98 99 88 88 87 92 88 86 86 91 96 100 100 100 100 100 100 99 100
64 71 75 78 90 90 94 96 99 98 98 94 94 80 80 87 89 94 98 95 100 92 98 94 87 92 84 78 88 96 91 100 100 100 100 100 100 100
76 81 84 87 88 92 94 95 96 94 83 87 86 89 95 95 98 98 97 96 93 92 98 98 86 94 90 70 58 59 78 96 99 99 99 99 99 100
81 83 87 88 91 92 95 94 88 82 82 87 98 100 100 100 100 100 94 100 98 93 76 99 98 98 89 62 62 68 75 78 85 97 100 99 97 95
79 81 82 90 92 95 98 90 91 81 87 95 94 89 93 98 100 100 98 99 100 100 85 99 99 100 98 84 67 61 66 70 80 89 98 97 98 98
84 79 83 90 94 95 96 95 93 97 99 99 93 96 100 100 100 100 99 100 97 100 77 100 100 100 100 100 77 65 74 78 83 82 87 92 98 98
86 92 92 96 96 97 95 89 100 100 100 99 100 100 100 98 90 87 84 85 90 93 83 95 96 100 98 98 100 73 75 77 85 91 96 96 96 97
96 95 98 98 95 55 69 77 90 100 100 100 100 100 98 89 84 84 81 84 84 79 82 87 98 96 100 100 100 100 100 82 87 100 98 99 98 98
95 95 96 93 88 87 83 96 100 100 100 100 100 100 96 97 91 92 91 90 94 77 75 82 94 98 98 100 100 99 80 100 98 97 98 94 98 98
97 95 89 85 93 92 96 100 100 100 100 100 100 100 99 99 88 88 92 98 98 94 82 78 83 97 98 96 91 78 93 100 100 97 96 96 90 99
100 93 91 98 99 100 100 100 96 97 100 98 97 98 99 95 93 90 93 96 100 91 93 86 99 98 92 76 86 93 94 100 100 98 97 98 91 96
96 100 100 100 100 100 100 98 94 94 97 97 97 94 96 95 96 94 94 96 97 91 90 100 100 100 100 100 73 69 96 95 100 100 98 96 99 97
100 100 100 99 99 99 96 96 95 94 96 95 95 97 96 97 96 95 96 98 97 94 96 90 100 99 99 99 99 72 77 97 100 98 98 87 96 97
99 94 91 93 95 96 96 97 97 96 96 96 95 96 97 97 96 97 96 94 100 98 100 100 95 97 94 90 100 92 72 84 98 98 97 100 100 89
85 84 93 93 97 99 98 97 97 96 96 96 96 96 97 97 96 96 96 97 96 100 100 100 93 92 93 100 100 87 90 85 83 96 97 98 99 98
96 96 94 97 99 99 99 99 99 96 96 96 96 95 96 95 97 96 97 97 100 100 100 100 99 96 96 100 100 94 90 94 95 99 94 97 98 98

GFSNE_850_rhum_039.txt.gz
RH
24 24 25 27 30 33 38 48 59 61 56 48 44 41 43 50 57 68 71 70 77 81 84 86 86 87 86 89 96 97 98 94 97 92 96 94 97 93
27 27 28 29 30 31 42 53 56 61 64 56 55 55 58 64 69 73 71 74 80 79 83 85 84 86 88 90 94 98 98 98 98 98 98 98 98 97
30 32 29 28 31 39 44 50 57 61 65 64 68 71 74 77 78 75 78 72 81 75 78 79 85 88 90 94 94 98 100 98 99 98 98 98 98 99
33 31 29 38 41 44 53 59 63 67 72 76 77 81 83 80 79 85 83 84 72 69 74 83 87 89 92 95 96 97 98 98 99 98 100 100 98 99
34 34 37 43 50 56 62 68 74 80 79 78 82 82 83 87 91 90 76 72 68 73 78 83 89 94 94 92 93 93 95 94 95 97 96 99 99 99
42 46 48 50 57 66 71 80 87 84 87 89 83 82 95 97 89 77 71 74 84 79 84 74 89 91 90 88 95 96 96 99 100 100 98 98 98 98
37 44 53 60 62 80 91 91 92 90 87 82 98 100 100 91 82 75 81 92 77 91 94 59 88 74 69 80 84 94 97 99 99 99 100 100 100 99
43 42 52 64 69 77 88 90 90 93 96 98 96 100 97 86 81 88 84 100 98 87 96 67 81 73 75 75 90 96 99 100 100 100 100 100 100 100
44 59 69 71 78 83 86 87 89 91 93 92 97 91 89 89 81 87 100 99 100 89 96 78 79 76 72 71 81 95 90 74 95 100 100 100 100 100
65 69 76 78 82 84 88 91 84 86 90 86 87 91 87 90 97 98 98 91 87 89 100 98 82 75 84 76 59 58 63 98 100 100 100 100 100 100
66 71 74 81 80 86 92 88 91 91 83 84 90 95 100 96 94 94 90 96 93 92 88 100 90 93 80 64 65 69 72 70 68 84 94 99 100 98
73 76 78 78 85 91 94 97 95 90 87 86 89 90 90 88 98 96 96 98 96 94 83 98 96 100 96 84 74 62 60 64 68 72 78 87 97 97
87 86 82 88 92 93 93 93 94 95 93 94 92 92 87 93 100 100 100 100 96 96 75 100 99 95 100 99 78 66 70 66 71 74 76 84 98 98
91 89 88 94 92 94 95 96 98 100 97 97 95 96 100 100 100 97 92 92 97 100 85 93 97 99 99 98 99 75 73 70 82 83 92 94 96 98
92 92 93 94 94 92 90 97 98 97 97 96 96 100 100 95 91 88 87 94 96 82 80 85 99 100 100 99 100 87 99 80 77 99 100 95 92 97
90 92 98 93 85 86 88 88 93 97 98 96 94 93 95 92 88 91 96 92 98 78 74 81 92 100 97 98 99 99 95 99 98 98 100 93 83 97
99 86 83 82 85 89 89 90 90 94 97 97 97 96 93 94 88 88 93 97 100 98 85 75 83 100 99 98 96 84 92 95 99 100 99 96 83 95
93 90 88 91 94 92 94 91 91 94 98 98 97 97 100 97 94 90 94 95 100 97 99 90 100 99 87 95 93 95 93 93 89 96 100 100 95 79
93 94 95 98 97 97 99 97 95 94 98 99 99 97 97 96 96 92 94 96 95 96 93 100 100 99 98 98 76 88 98 86 94 99 100 100 100 84
91 94 91 94 95 95 97 98 96 94 97 96 95 96 96 98 96 96 96 100 100 99 98 100 100 99 99 98 99 74 69 97 98 99 96 97 97 93
88 83 94 94 96 98 98 98 97 95 96 96 95 95 96 97 95 98 99 98 100 100 100 100 98 100 100 99 97 99 73 81 98 98 98 99 100 100
92 92 93 97 98 98 98 97 95 95 96 96 95 96 96 98 97 98 99 100 100 100 99 99 99 94 98 99 97 98 94 87 87 93 97 98 99 98
95 96 97 98 98 98 98 96 96 95 97 97 95 95 96 96 97 98 99 97 99 98 100 100 97 96 100 100 100 96 100 98 93 86 87 98 98 99

GFSNE_850_rhum_042.txt.gz
RH
25 24 24 26 26 27 30 34 47 62 57 40 44 40 35 34 40 51 58 59 77 83 86 86 85 87 86 86 92 91 95 98 98 98 98 98 98 96
25 26 28 28 28 29 29 30 39 54 62 49 46 49 55 67 73 68 65 73 74 84 86 85 85 87 85 88 91 96 98 99 100 99 100 98 99 98
28 29 30 31 30 29 29 32 37 50 63 59 60 72 80 81 74 82 70 70 83 82 85 85 82 85 87 89 92 95 98 99 100 99 99 99 99 99
31 32 32 33 31 30 34 42 55 62 70 78 84 84 86 83 72 72 76 76 70 77 81 80 87 89 91 94 93 94 94 96 96 98 99 100 99 99
33 34 34 34 31 36 47 56 59 63 69 89 86 86 73 74 84 82 80 78 78 76 79 85 88 95 97 96 94 91 92 96 98 99 100 99 99 100
31 31 32 39 48 58 62 67 79 86 92 90 90 86 98 96 94 95 88 84 79 70 70 67 98 68 78 84 85 92 99 100 100 100 98 99 98 99
22 20 32 47 56 70 80 81 88 94 91 98 100 100 100 99 99 91 92 84 71 76 95 73 75 63 59 59 63 65 100 100 100 100 100 100 100 100
15 20 35 45 52 74 82 87 87 90 93 89 96 100 98 96 95 96 85 77 100 94 98 72 68 62 62 68 68 95 100 100 100 100 100 100 100 99
18 37 52 59 66 73 81 87 88 94 94 95 94 92 94 93 95 87 87 100 100 89 97 82 66 70 70 72 67 66 89 92 98 100 100 100 99 100
29 47 64 70 75 83 84 89 96 88 87 95 96 94 93 92 97 98 99 99 87 79 95 100 74 78 74 74 66 59 62 83 100 100 100 100 99 99
27 51 66 73 82 84 91 95 89 88 85 85 95 99 100 100 99 97 91 98 98 97 90 100 86 89 84 70 63 69 73 72 66 70 89 100 100 100
40 54 67 89 89 90 91 92 98 95 86 93 86 77 76 80 82 92 100 97 96 100 90 100 95 98 99 87 77 71 63 64 67 69 73 78 80 100
91 90 90 91 92 97 95 97 95 92 94 88 82 76 77 79 82 86 98 100 99 97 75 99 97 96 100 98 80 70 70 64 68 67 70 74 80 96
93 95 88 95 96 94 94 94 95 96 89 84 88 84 86 85 87 88 88 89 91 97 84 92 97 99 97 98 95 79 74 69 71 71 74 75 74 82
92 95 98 97 93 89 79 95 97 87 91 95 93 90 91 91 90 85 81 83 85 81 81 86 99 98 97 98 100 90 91 78 75 76 81 80 92 98
88 97 90 72 79 82 69 76 84 88 95 97 94 89 89 90 88 90 92 90 94 79 78 86 93 100 100 95 100 96 84 100 86 81 85 98 98 96
99 80 60 63 64 66 77 83 84 86 90 92 93 93 91 92 90 91 92 96 100 99 86 77 85 98 93 94 96 83 90 90 84 87 97 100 84 99
93 74 69 70 74 84 87 84 85 89 93 96 96 97 98 99 97 91 96 97 100 96 96 89 97 91 87 91 96 95 90 88 86 90 100 100 100 100
69 64 71 80 90 93 93 94 92 90 96 97 96 97 99 97 99 94 91 96 94 90 88 94 98 100 99 98 84 97 96 91 98 100 100 100 100 94
68 77 91 94 97 95 94 95 91 92 95 94 96 97 97 97 95 96 96 100 96 93 95 88 99 98 99 99 99 66 78 97 99 97 93 97 96 91
84 89 95 98 96 96 96 94 95 96 98 98 95 96 96 97 95 97 99 97 100 99 99 96 98 98 96 92 100 90 75 82 92 97 97 99 96 100
92 92 96 97 98 98 96 96 95 92 94 96 96 96 96 97 97 97 98 99 97 98 97 98 93 94 94 100 100 94 93 79 78 79 95 98 98 99
92 93 95 96 97 97 99 97 95 93 98 98 97 96 96 96 97 97 97 97 98 97 98 94 90 90 91 98 98 97 92 90 91 85 75 89 100 99

GFSNE_850_rhum_045.txt.gz
RH
36 30 26 25 27 28 30 32 37 50 46 32 31 26 27 30 33 51 70 64 72 88 89 91 92 90 88 86 88 96 96 98 98 97 98 97 98 98
33 28 27 29 30 31 30 30 33 44 59 38 34 38 41 39 50 59 64 56 63 73 93 94 91 90 89 87 93 92 97 97 98 98 98 99 98 98
29 28 30 31 31 31 30 29 33 41 51 46 50 51 58 59 55 59 63 67 63 66 93 92 91 90 89 92 92 94 98 99 98 99 98 98 99 99
29 30 32 33 33 32 32 34 40 44 54 62 65 64 68 73 75 78 74 69 69 64 90 90 88 92 94 98 98 98 94 97 99 98 96 99 98 99
30 32 31 32 29 32 37 42 47 61 69 76 84 86 89 84 83 82 79 76 70 73 82 77 87 81 100 100 98 97 96 98 97 100 100 100 100 100
31 30 26 24 31 42 49 61 77 81 86 91 93 91 87 86 94 94 84 80 81 72 71 67 80 70 84 72 65 63 66 99 100 100 100 100 99 99
27 18 17 23 39 47 68 80 84 86 88 94 94 91 100 98 87 89 94 85 74 77 88 82 87 69 60 57 60 60 69 100 100 100 100 100 99 97
16 16 18 27 38 53 72 82 88 89 91 94 95 100 98 89 88 98 90 87 100 84 100 94 69 66 60 64 65 72 82 100 100 100 99 100 98 100
15 14 16 30 59 68 71 83 88 92 96 98 93 88 94 92 90 92 93 99 99 87 86 100 65 70 69 71 67 61 62 89 100 100 100 100 100 100
13 13 27 43 51 67 87 92 98 92 80 80 92 98 98 96 98 98 97 99 87 75 82 100 81 78 77 73 63 61 63 70 100 100 100 100 100 100
16 30 47 50 66 93 91 92 86 82 84 84 91 98 100 99 98 100 93 98 90 80 77 100 86 91 82 71 63 67 70 74 73 71 89 98 100 100
30 39 50 79 95 94 96 98 99 95 90 92 86 78 72 73 77 87 94 99 95 99 80 99 95 98 98 86 79 73 65 64 68 71 70 71 78 96
63 52 64 78 98 97 96 97 95 93 96 86 76 71 73 76 79 82 88 98 100 97 78 98 96 96 100 99 82 74 69 66 70 67 68 69 73 80
61 71 85 99 98 98 94 93 97 99 78 74 78 78 82 81 81 83 86 89 90 95 88 96 96 99 97 95 93 74 74 70 71 70 72 70 68 74
82 99 100 100 69 52 55 66 70 76 80 82 86 85 88 86 85 85 83 84 84 80 81 87 95 97 99 97 100 88 83 71 68 72 76 75 77 73
91 100 89 62 55 56 65 75 79 83 89 94 94 90 87 87 86 88 89 88 90 73 77 82 86 95 97 96 100 98 80 98 76 76 82 86 82 82
99 72 54 51 61 75 78 80 81 84 88 91 91 90 90 93 88 87 91 96 98 93 80 72 78 88 90 91 92 81 82 82 78 86 97 100 84 78
76 61 58 77 84 84 84 83 84 86 89 92 91 94 96 95 94 92 98 98 98 92 88 80 87 89 81 86 91 89 85 88 83 92 97 100 96 71
62 68 87 88 89 88 92 91 87 87 91 92 94 94 95 94 97 97 96 97 94 90 85 92 97 98 98 100 85 99 96 92 95 95 94 100 100 82
76 88 89 92 92 94 95 94 90 90 91 91 94 96 97 97 96 96 96 99 98 95 97 92 91 97 99 99 100 73 81 96 98 97 94 91 94 90
85 85 91 94 95 95 95 93 92 93 97 98 97 96 96 97 94 96 98 98 100 100 97 90 90 95 98 97 98 87 78 82 93 99 97 98 96 94
88 87 91 95 97 96 94 94 91 90 94 98 97 96 96 98 98 99 100 100 98 97 94 92 92 95 94 99 97 96 94 81 77 74 75 95 99 97
91 91 94 97 95 96 98 96 93 92 98 98 99 98 92 96 96 97 99 97 97 96 97 95 90 91 92 97 98 97 96 91 87 81 70 77 90 99

GFSNE_850_rhum_048.txt.gz
RH
48 50 38 30 26 26 28 29 32 40 38 30 26 25 25 25 25 28 30 34 35 57 77 95 95 95 93 91 86 92 99 93 98 99 98 100 98 98
41 41 32 28 28 29 30 32 32 37 51 38 29 28 30 32 34 38 43 45 46 50 62 94 95 94 92 91 95 93 93 98 98 98 100 98 98 97
39 35 30 29 30 31 33 32 31 34 41 40 39 39 45 42 37 42 45 48 48 41 51 96 97 94 93 92 93 96 97 98 99 99 98 98 99 98
37 30 32 34 31 33 31 28 30 35 43 49 59 63 67 63 65 62 54 45 46 35 63 98 97 96 97 100 100 100 98 97 98 98 99 99 96 98
36 34 32 31 30 27 26 29 34 41 54 72 80 80 85 74 73 67 68 57 52 50 62 67 65 87 96 100 100 99 98 99 100 99 100 100 100 100
80 61 38 25 21 24 30 36 51 68 75 76 82 92 85 79 76 86 84 68 64 64 66 76 69 69 63 77 70 60 60 60 92 100 100 99 100 100
55 29 21 18 22 33 51 62 76 76 79 90 96 92 90 90 87 81 85 80 77 72 71 98 64 70 58 60 60 61 58 73 100 100 100 100 100 99
25 17 17 19 23 31 46 66 84 90 92 96 93 95 90 84 81 85 92 94 97 72 85 94 69 69 64 66 65 64 81 99 100 100 100 100 100 98
18 16 15 16 24 32 38 51 78 91 95 96 97 84 85 79 94 95 97 99 96 69 79 86 70 68 66 68 66 62 63 86 99 100 100 100 100 98
17 16 21 27 27 36 76 93 91 89 92 86 84 91 98 95 98 100 100 95 87 78 78 98 75 72 70 63 61 60 61 64 69 98 100 100 100 100
20 28 30 27 39 92 94 98 98 93 83 81 87 91 94 96 86 90 84 95 88 88 74 94 82 86 77 65 61 65 68 70 74 70 72 98 100 100
25 24 32 47 91 96 97 99 94 83 86 88 75 74 70 72 76 85 90 98 98 100 85 98 90 89 98 84 77 72 66 65 68 69 71 75 96 100
31 35 41 60 100 100 97 96 88 98 96 82 72 71 72 74 76 79 83 91 95 99 80 99 95 92 100 96 84 72 73 68 71 67 66 70 77 93
46 61 81 98 100 88 71 52 97 92 72 75 76 77 81 78 76 80 82 85 89 90 85 90 96 98 97 94 94 77 74 74 72 66 69 68 70 77
89 99 98 85 57 46 50 64 73 77 79 80 83 83 83 84 81 82 82 82 84 78 77 84 94 96 99 100 100 90 87 71 67 70 72 74 78 76
94 88 83 60 52 64 75 76 79 81 86 92 89 85 85 87 85 89 89 88 90 73 73 82 89 97 97 96 99 91 75 97 74 71 77 78 78 82
96 65 51 54 73 75 76 78 80 84 86 86 88 90 91 92 88 85 88 92 96 92 84 76 82 90 92 90 85 76 77 76 71 78 90 93 88 83
67 56 67 81 83 84 84 82 83 85 88 90 91 94 94 93 92 89 96 98 98 92 88 82 87 87 79 76 87 83 78 83 80 90 100 100 95 76
62 77 85 88 89 89 88 88 85 87 90 93 94 94 95 95 97 95 96 98 96 92 88 90 94 98 97 100 79 96 96 94 96 92 89 95 100 87
77 84 86 89 91 91 91 92 90 89 91 93 95 97 98 97 95 96 96 99 96 94 95 89 94 97 99 98 98 74 81 96 98 98 97 96 100 86
82 84 87 91 92 92 95 95 95 93 95 99 97 100 98 96 96 98 96 96 99 96 94 91 90 96 96 96 98 86 75 80 95 97 96 99 93 89
86 85 87 91 93 94 95 96 93 91 92 95 99 100 100 99 97 98 98 97 95 94 95 92 92 95 95 98 96 93 91 83 81 83 93 98 98 97
89 88 88 90 94 95 98 98 95 91 93 96 100 100 99 98 98 97 96 100 100 97 98 93 89 92 92 97 99 98 94 89 90 81 71 85 94 99

GFSNE_850_rhum_051.txt.gz
RH
47 63 67 50 38 30 28 27 28 33 32 27 26 24 26 25 23 24 24 26 30 27 24 24 68 94 96 96 95 92 89 95 98 97 97 99 100 98
70 62 68 50 33 30 28 28 30 33 42 35 30 27 29 28 28 28 28 34 34 35 34 62 94 97 95 94 92 93 95 88 91 99 99 99 98 98
78 58 35 34 31 31 30 31 32 35 37 35 36 34 35 35 27 30 32 38 34 31 27 53 97 99 97 96 95 96 98 99 99 100 99 98 99 99
72 65 59 39 40 47 47 36 32 31 40 41 45 46 52 47 53 54 53 46 37 26 26 65 98 97 100 100 100 99 98 100 100 100 100 100 99 99
86 87 54 70 97 58 34 27 28 35 38 50 60 60 69 72 72 70 61 49 41 36 52 58 55 59 96 100 100 100 100 100 100 100 100 100 100 100
64 86 97 88 44 24 21 26 33 41 51 60 65 83 92 82 78 74 75 64 61 56 54 63 63 63 63 60 66 60 60 64 97 100 100 100 100 100
99 65 32 24 20 19 24 37 54 70 69 77 94 96 88 85 85 77 76 75 78 65 62 71 72 64 56 56 59 59 59 60 100 100 100 100 99 100
49 27 21 18 19 19 21 31 48 75 92 97 96 95 89 89 81 79 89 95 100 82 71 68 66 59 59 61 60 59 59 89 100 100 100 100 100 100
25 20 19 16 15 21 24 32 53 70 95 98 94 91 90 79 90 94 98 100 100 76 75 70 72 64 61 62 59 58 57 64 94 100 100 100 100 99
21 18 20 26 26 28 46 83 86 86 87 86 84 86 95 94 96 100 100 87 83 79 82 77 76 72 68 64 58 58 60 63 67 95 100 100 100 100
30 37 40 34 31 53 92 99 98 86 76 75 74 80 82 83 81 81 79 89 84 82 85 84 77 82 74 67 62 63 67 70 77 78 82 95 100 100
32 36 37 41 46 96 98 98 95 75 75 76 69 70 68 70 74 81 86 92 97 99 93 96 94 94 98 91 78 74 68 67 70 70 70 72 82 100
28 30 35 52 100 100 100 92 75 96 97 83 72 69 68 69 73 77 81 89 94 96 77 99 96 95 100 99 88 73 70 69 70 65 65 68 72 84
41 50 70 95 98 80 54 48 97 98 76 77 74 71 75 75 77 80 84 88 91 89 82 95 96 96 98 94 93 76 73 74 71 65 66 66 70 73
69 93 82 75 57 48 55 74 78 80 80 77 75 76 82 86 85 83 80 81 82 78 80 84 93 95 98 98 100 92 88 72 69 71 73 72 74 75
80 78 69 52 52 73 81 82 82 83 83 84 85 85 86 88 85 90 88 89 87 73 73 80 85 94 97 97 100 89 73 94 73 72 75 78 81 84
81 51 48 61 78 80 81 83 84 83 84 88 90 91 91 91 88 89 91 92 96 88 79 74 82 90 92 91 85 74 74 74 72 76 87 90 81 87
54 53 68 83 85 87 86 82 82 84 87 88 92 95 96 95 93 90 96 97 94 88 84 82 87 88 81 81 87 82 75 80 75 86 97 100 98 88
57 68 82 84 86 87 89 88 87 90 90 90 93 96 97 97 98 93 92 95 92 89 86 87 94 98 97 100 77 96 96 93 96 93 91 94 97 81
69 83 84 85 88 90 89 89 89 90 89 90 93 98 100 100 94 96 94 95 94 94 94 87 95 97 98 98 98 78 84 96 98 97 99 100 98 85
84 86 88 87 90 93 92 92 92 91 93 97 98 100 100 100 96 97 95 94 97 99 99 95 90 95 96 96 99 88 77 91 97 97 95 99 95 92
86 87 88 89 92 94 94 95 92 89 90 93 98 100 100 98 96 96 95 97 96 100 100 100 89 93 94 98 97 94 92 84 87 94 97 98 98 96
85 88 90 91 94 95 96 97 97 90 93 96 100 100 100 98 97 96 96 96 100 100 100 98 89 91 91 97 97 96 94 93 92 86 79 96 89 93

GFSNE_850_rhum_054.txt.gz
RH
72 63 52 43 56 81 49 34 30 29 29 27 28 28 29 29 25 23 26 25 23 26 26 25 38 75 95 97 96 94 94 92 90 99 90 93 96 98
59 54 64 69 61 66 62 35 32 33 35 38 34 28 27 27 26 29 28 31 31 33 28 27 66 95 97 96 96 94 94 92 92 95 97 99 99 99
61 67 72 77 73 51 62 60 74 93 84 42 29 28 29 28 26 27 30 36 29 27 25 26 78 97 99 98 98 99 99 100 100 100 100 100 100 100
66 77 79 67 79 85 90 97 99 51 32 32 36 39 41 35 28 38 46 49 42 30 26 40 74 76 98 100 100 100 99 100 100 100 100 100 100 100
84 85 82 92 100 98 98 77 35 32 33 40 43 50 51 45 59 58 62 49 36 34 47 53 54 53 53 84 100 99 99 99 100 100 100 100 100 100
92 96 97 99 98 81 30 26 33 37 44 52 63 66 75 73 71 71 70 57 56 54 50 55 56 53 52 54 56 56 56 56 75 100 100 100 100 100
99 100 100 98 69 26 23 24 32 39 48 59 73 90 82 80 85 82 74 75 76 61 52 52 53 52 48 52 56 56 56 56 73 100 100 100 99 100
100 94 33 24 21 21 24 25 27 37 70 84 88 95 92 90 83 76 88 91 98 66 65 64 63 56 56 61 59 58 58 58 68 99 100 99 99 99
30 26 25 23 19 20 24 25 29 38 76 93 96 95 93 71 85 94 96 90 84 77 82 70 68 60 61 61 59 56 55 57 70 99 100 100 100 100
27 27 26 25 27 24 26 43 65 76 86 90 86 77 79 96 100 100 94 83 88 83 82 81 63 67 68 64 59 55 57 61 66 86 100 100 100 99
34 38 33 22 23 31 86 99 100 88 79 74 66 74 75 70 71 78 79 93 91 81 78 89 74 80 73 69 64 62 65 67 70 70 68 81 100 100
26 27 33 40 64 100 99 96 89 63 63 53 61 63 67 70 76 82 86 92 97 91 82 97 90 91 94 83 75 72 65 63 64 64 67 72 81 100
34 36 42 52 100 97 100 90 67 94 80 72 67 69 70 73 72 75 81 89 95 89 77 100 95 91 100 96 81 70 70 65 66 64 65 68 73 79
41 53 57 90 68 57 45 47 88 87 76 75 75 75 76 76 76 80 80 82 87 87 80 91 97 95 99 94 91 74 74 70 72 69 70 71 75 78
68 69 60 46 42 45 65 76 77 78 79 79 80 80 84 86 81 79 77 82 82 79 81 84 92 93 98 98 98 87 84 71 70 70 75 78 76 76
51 59 49 46 61 77 80 83 82 81 82 84 83 85 85 84 82 88 86 88 83 70 75 79 84 96 95 94 98 89 83 98 74 73 80 80 84 84
52 45 46 64 75 77 78 80 83 84 84 84 84 88 87 86 83 88 91 90 95 88 75 72 82 89 91 94 93 82 79 76 75 80 92 93 80 80
44 45 66 77 79 80 81 81 84 87 90 88 87 92 92 88 86 85 92 92 89 83 82 82 84 85 80 85 91 86 81 83 82 92 96 100 93 85
49 67 78 79 82 85 87 88 87 90 91 92 92 93 96 97 97 90 85 88 90 89 86 90 95 98 98 100 80 98 95 88 95 94 92 96 96 79
67 78 79 82 84 88 91 91 89 89 90 92 91 96 100 100 98 92 92 94 94 90 93 90 95 97 98 98 98 71 91 96 98 99 99 99 93 81
77 80 83 86 87 90 92 91 92 91 92 97 97 99 100 100 100 91 90 97 100 100 98 93 89 95 95 94 96 84 76 96 97 97 98 100 96 90
82 83 84 88 90 92 92 92 92 91 91 94 95 100 100 100 100 99 99 98 95 99 95 90 88 91 93 98 97 92 88 82 88 95 97 98 98 99
85 87 88 90 93 93 93 93 94 96 94 95 95 100 100 100 97 100 100 96 98 99 96 95 88 90 92 95 98 95 91 91 88 80 68 91 92 88

GFSNE_850_rhum_057.txt.gz
RH
100 100 95 72 57 54 73 46 54 79 71 34 35 36 40 40 34 30 23 21 18 14 13 17 20 43 90 95 97 96 96 94 93 93 93 92 100 94
100 98 76 58 62 61 57 68 66 56 53 50 56 93 98 82 29 29 26 22 18 22 25 29 54 95 95 97 97 96 97 94 95 94 97 99 99 98
93 73 58 53 55 69 73 75 76 75 90 99 100 88 39 30 28 26 22 24 28 25 28 29 37 74 95 98 100 100 100 100 100 100 100 100 100 100
69 59 56 73 80 83 86 98 100 99 99 91 37 27 28 28 26 20 26 32 35 28 25 28 40 45 46 64 95 100 100 100 100 100 100 100 100 100
60 70 74 81 91 99 100 100 100 97 92 38 30 33 36 30 30 35 44 41 34 27 37 45 46 45 46 48 77 95 95 94 96 99 100 100 99 100
74 84 96 100 99 100 100 99 83 44 26 39 43 60 56 54 58 61 69 53 42 41 46 48 48 48 47 49 53 53 52 53 54 71 97 100 100 100
98 100 100 100 100 97 37 24 26 26 33 51 63 69 76 82 94 84 70 72 60 47 49 50 48 48 48 51 52 52 54 53 51 68 100 100 99 98
99 99 98 60 27 29 28 26 24 27 52 85 81 86 96 93 78 83 98 94 100 61 68 93 59 56 54 56 56 53 48 50 58 100 100 100 100 99
98 86 32 26 25 27 26 24 21 30 70 98 100 96 94 74 75 90 97 99 92 61 78 86 61 60 58 58 54 54 54 55 58 82 100 100 99 99
31 30 29 27 24 22 24 30 41 64 70 81 82 71 66 88 100 99 83 84 77 63 77 92 64 69 75 64 58 55 57 61 64 82 100 100 100 100
31 25 19 18 22 33 70 65 70 71 69 58 53 64 74 70 71 76 75 84 86 70 78 89 78 88 77 64 62 61 64 65 69 70 68 75 98 100
22 20 24 30 40 97 98 95 77 54 50 56 68 65 68 68 71 77 82 88 93 90 87 96 89 94 100 74 70 66 63 63 66 68 70 72 75 100
27 36 40 46 100 90 81 53 46 86 67 67 65 66 68 70 72 77 82 88 92 88 81 100 91 92 100 95 72 68 70 66 67 68 70 70 74 77
37 39 41 47 42 41 40 51 94 72 72 70 68 68 69 72 74 78 82 87 91 88 82 95 96 94 99 96 88 74 72 72 76 73 70 71 73 78
42 40 41 39 40 56 71 76 75 76 76 75 74 74 77 78 78 78 77 80 79 78 80 85 90 92 97 98 99 78 81 73 72 72 75 76 76 80
40 40 40 48 68 77 80 81 82 83 82 83 82 78 80 81 78 82 81 82 77 69 72 78 85 95 94 90 94 81 73 92 72 76 82 85 84 85
41 44 50 70 77 78 79 80 83 85 86 86 84 80 81 85 80 84 87 86 87 80 72 73 83 88 86 84 83 74 79 78 80 84 94 90 79 82
42 46 66 74 75 76 76 77 82 85 87 86 85 88 90 90 86 82 91 93 89 86 86 83 85 83 78 90 85 82 85 87 86 96 98 100 89 88
46 66 72 75 77 79 82 83 81 85 87 88 88 91 95 95 100 98 93 94 89 91 90 86 94 100 99 100 92 97 93 87 94 93 94 98 98 79
68 75 77 78 81 84 87 88 86 86 86 88 89 91 98 100 100 100 100 100 95 93 91 85 88 99 100 99 98 69 87 95 99 100 96 96 88 78
75 80 83 84 85 86 90 92 91 89 90 90 93 96 100 100 100 100 100 100 100 95 95 86 85 88 95 99 100 89 74 90 97 97 95 99 90 89
80 83 87 89 91 92 92 94 92 92 92 90 91 92 100 100 100 100 100 100 92 93 89 90 92 100 100 100 100 94 82 78 83 96 97 98 97 95
82 84 87 91 94 95 95 95 96 94 97 94 92 90 93 98 96 97 100 99 96 97 96 91 98 100 100 100 100 95 84 82 80 78 67 80 87 91

GFSNE_850_rhum_060.txt.gz
RH
100 100 100 100 99 98 93 50 47 48 58 63 52 60 77 72 40 40 80 97 78 31 16 11 10 12 12 15 29 53 89 95 95 96 94 94 94 95
98 93 96 99 96 78 58 54 56 65 69 72 72 77 86 81 98 99 92 43 25 21 12 17 19 18 16 20 65 96 97 97 98 97 100 100 99 100
100 100 100 97 88 64 58 62 72 77 79 85 96 100 99 100 97 64 34 29 23 18 17 23 21 21 28 80 98 100 100 100 100 100 100 100 100 100
100 99 93 83 77 74 81 86 89 95 99 100 99 99 97 92 62 32 30 22 20 20 23 23 30 37 42 47 56 83 98 99 98 100 100 100 97 96
97 82 68 71 83 86 88 92 100 100 99 99 91 56 34 29 24 38 51 35 44 25 31 39 39 42 43 43 48 71 60 61 89 96 98 99 100 100
74 73 82 88 93 97 99 100 100 97 70 40 38 40 64 75 90 71 80 84 77 46 53 42 43 43 42 44 45 45 46 48 50 54 84 95 99 100
86 90 95 100 98 100 100 86 55 31 26 36 79 93 95 88 84 88 89 86 80 58 67 82 82 62 51 47 44 45 49 52 52 54 96 100 100 99
99 100 100 100 99 83 52 26 17 22 60 97 97 89 87 86 88 89 93 100 100 72 90 94 76 79 58 58 50 50 52 53 52 57 97 100 100 100
99 99 88 52 27 22 20 22 27 29 43 84 94 92 92 92 91 65 100 100 100 95 99 97 88 90 73 64 50 50 51 51 52 55 84 100 100 100
45 27 27 25 23 21 20 26 38 61 65 65 86 96 96 90 100 100 100 100 100 98 99 96 87 93 73 64 54 50 53 56 57 58 64 98 98 99
28 22 20 20 23 34 74 57 87 78 55 42 38 38 50 61 68 76 79 100 100 82 81 89 86 100 74 63 63 61 56 58 61 64 68 71 88 100
20 23 25 27 36 76 89 97 70 71 61 46 62 62 64 66 70 74 79 82 87 93 95 88 85 99 100 70 73 68 61 62 65 70 71 74 82 100
28 31 32 34 52 43 37 78 49 73 98 73 67 67 68 70 72 77 82 86 87 86 82 100 84 86 100 96 65 69 67 65 68 71 74 76 75 80
42 39 38 26 26 31 35 42 81 75 73 69 69 69 70 71 76 78 81 83 86 83 80 93 93 88 94 90 88 69 70 72 75 67 70 74 77 77
30 31 31 33 35 47 61 67 68 72 74 71 71 71 72 72 74 76 74 78 79 75 74 81 88 89 95 96 96 78 76 68 69 73 77 84 87 90
40 39 37 42 60 70 68 69 74 76 77 77 75 75 74 74 77 82 80 82 79 71 74 78 83 92 88 88 98 85 74 97 75 76 92 94 98 94
37 39 46 62 71 71 73 77 80 80 81 81 81 81 81 84 87 90 88 85 85 79 71 74 82 95 96 90 86 84 85 83 90 93 100 99 94 94
39 44 62 70 71 72 75 78 81 83 85 85 85 86 87 89 92 91 96 100 100 96 84 76 80 86 95 99 94 89 84 92 100 100 100 100 92 85
45 64 72 73 74 75 77 79 81 83 83 85 86 88 92 94 97 100 100 100 98 100 99 100 100 100 96 98 93 99 96 97 96 92 100 100 99 73
58 72 76 77 79 81 83 85 86 87 87 89 90 92 94 100 100 100 100 100 99 99 100 97 100 100 99 100 100 85 88 95 96 98 90 92 87 76
69 75 78 81 84 86 87 89 90 91 92 93 94 95 97 100 100 100 100 100 98 96 96 95 89 98 100 98 99 98 92 93 96 98 94 100 89 80
70 76 80 84 88 90 90 92 91 93 94 96 95 95 96 97 96 97 98 100 95 98 96 92 100 99 98 96 97 98 100 77 76 84 90 97 99 98
69 76 80 85 90 91 92 92 92 92 94 97 97 95 94 92 90 91 96 100 98 95 97 99 100 100 99 98 98 100 99 92 82 80 75 85 91 84

GFSNE_850_rhum_063.txt.gz
RH
100 100 98 100 100 100 100 97 97 98 97 89 59 52 54 58 67 74 68 89 74 76 96 78 21 11 8 8 8 10 24 56 95 96 96 95 95 94
100 100 100 100 100 100 100 99 96 96 75 75 70 75 78 78 81 89 92 93 98 97 69 33 10 10 11 14 16 23 75 96 99 100 98 100 99 99
100 100 100 100 99 100 100 100 95 72 78 90 90 94 93 97 99 100 100 98 70 30 16 10 12 14 16 23 38 55 73 95 98 98 99 99 100 100
100 100 100 100 100 100 99 93 90 89 93 96 97 100 99 100 99 82 51 40 25 13 16 16 14 21 32 35 37 38 58 86 97 100 100 100 100 100
100 100 100 100 96 87 83 86 87 92 98 99 100 98 87 66 51 28 24 32 32 38 34 24 35 39 37 40 42 48 58 71 92 93 95 96 96 98
99 95 87 80 83 86 89 93 99 98 99 92 67 43 27 35 41 45 58 80 69 55 57 46 65 52 48 48 47 49 47 49 51 55 77 85 92 100
83 82 90 95 97 99 98 100 96 81 57 32 28 46 64 78 83 81 83 77 49 49 50 67 77 60 53 49 50 56 67 79 86 93 93 99 100 100
97 98 100 100 100 100 92 66 29 24 33 44 63 69 74 83 83 85 83 65 82 60 79 53 65 60 52 51 53 60 68 69 89 95 97 100 100 100
100 100 100 96 60 29 22 24 24 25 28 35 45 65 84 87 87 73 70 99 95 71 95 63 63 64 51 53 53 55 56 54 53 55 57 62 96 100
69 34 30 27 22 17 19 29 32 38 53 54 58 70 74 87 92 96 97 97 74 73 96 89 67 64 55 54 54 53 53 56 58 59 61 74 99 100
24 19 17 17 16 20 27 47 73 92 86 72 33 33 36 45 57 65 65 76 82 68 68 79 69 75 59 51 53 55 61 66 66 66 67 79 93 100
22 22 22 27 31 40 46 92 89 78 73 59 79 77 62 62 65 68 72 76 92 90 91 82 81 88 89 62 65 65 59 64 68 71 72 80 99 100
32 35 33 28 27 25 25 38 77 61 96 89 72 70 74 78 79 79 80 86 86 82 75 100 87 83 97 82 68 67 68 70 71 70 70 71 72 75
46 49 62 31 29 29 34 38 54 65 67 68 69 70 73 73 72 74 79 82 83 80 78 89 92 85 92 89 83 69 69 68 66 66 71 76 77 81
34 32 32 32 34 43 53 65 65 66 71 69 70 77 79 75 72 73 75 76 76 75 75 79 89 88 95 96 95 80 78 65 63 72 78 87 99 100
42 33 32 35 48 63 66 68 70 72 71 71 72 73 74 75 74 76 78 81 80 71 69 75 91 100 97 97 100 96 85 100 82 73 83 88 92 95
31 35 40 54 67 73 74 74 73 72 72 73 72 73 75 77 78 82 86 86 92 92 75 85 92 100 100 100 96 83 96 100 100 100 100 97 100 99
35 44 62 76 76 76 76 76 76 77 78 77 79 82 81 82 83 86 91 95 100 100 100 100 100 100 96 95 87 90 100 100 93 91 100 100 90 83
38 51 67 72 73 74 75 75 77 81 83 82 82 84 87 86 88 88 90 97 100 100 100 100 100 100 98 100 94 96 95 84 88 90 93 100 100 82
40 56 69 72 73 74 76 80 82 84 86 87 87 90 92 93 94 93 94 100 100 100 100 100 100 100 98 97 95 85 80 96 97 96 92 92 90 84
44 60 70 73 75 78 82 85 87 88 90 91 92 93 94 96 93 94 95 95 99 100 100 99 89 91 95 94 99 95 82 92 99 100 96 98 100 92
42 55 69 74 77 81 85 87 88 90 92 94 95 96 98 100 97 96 95 95 98 100 96 94 87 95 98 98 96 94 94 87 81 79 80 96 98 97
39 45 62 72 76 79 83 86 89 90 94 95 96 97 99 100 99 98 97 96 100 100 94 93 91 99 98 95 100 100 99 94 90 89 79 84 91 85

GFSNE_850_rhum_066.txt.gz
RH
98 100 100 99 99 100 100 97 92 96 96 93 97 95 100 94 83 88 86 74 78 81 86 89 94 93 69 33 10 8 8 14 65 95 96 95 96 99
100 100 100 100 100 100 100 100 100 100 100 99 97 98 90 92 85 81 89 90 92 98 97 93 71 28 16 12 14 11 34 86 97 98 99 99 100 98
99 100 100 100 100 100 100 100 100 99 99 99 93 90 92 93 97 99 100 99 95 88 57 40 23 15 13 15 14 38 92 97 99 99 100 100 100 100
100 99 100 100 100 100 100 100 100 96 98 95 98 98 98 99 99 99 98 74 63 42 21 18 21 24 28 29 35 56 62 67 77 98 100 100 100 100
100 92 99 100 100 100 99 98 91 96 96 99 100 98 99 98 87 63 40 23 24 34 30 24 31 31 34 38 38 43 47 56 74 90 98 97 97 98
100 95 100 99 98 95 100 100 100 98 98 98 93 84 65 42 35 34 31 43 39 45 26 34 39 39 43 45 48 49 51 57 81 86 87 87 88 94
98 93 92 96 100 100 100 100 100 94 83 68 38 24 30 45 57 68 60 57 45 35 38 44 47 47 46 46 48 51 52 81 97 97 98 100 100 100
98 100 99 100 100 99 95 76 67 36 24 24 26 34 51 72 78 77 70 69 43 50 54 42 52 43 46 49 52 56 69 87 97 98 99 99 100 100
99 99 99 99 97 86 53 24 25 25 20 22 26 47 70 82 75 72 68 50 50 54 53 36 53 45 51 53 55 57 57 62 67 72 84 96 100 100
84 61 37 26 27 22 22 28 35 37 38 48 53 50 56 64 66 53 47 49 49 55 71 56 56 49 51 50 54 54 58 62 65 75 90 94 100 100
22 26 26 25 30 26 32 43 53 63 70 69 47 38 34 34 39 50 55 62 59 55 62 67 62 63 53 47 54 58 61 66 67 68 74 100 100 100
36 27 27 27 24 23 28 48 61 60 56 48 52 54 56 57 60 62 67 68 71 70 70 71 68 76 80 57 63 63 61 65 68 70 70 74 98 100
27 32 29 25 25 23 23 26 37 45 36 46 63 62 66 70 70 68 68 70 76 76 72 95 76 79 97 87 61 60 58 60 65 65 67 68 73 76
32 35 39 31 26 28 31 34 46 59 65 67 70 72 71 68 66 68 68 73 77 76 76 88 92 92 100 92 84 61 57 58 62 66 72 74 76 86
30 29 28 29 31 37 50 64 67 69 69 71 72 71 71 72 72 71 71 72 74 76 78 86 88 94 100 100 98 76 78 69 64 72 74 75 77 86
30 28 30 35 46 61 67 69 70 72 73 74 75 74 75 74 74 76 80 85 82 72 80 91 99 100 100 100 100 79 79 98 77 76 81 73 75 80
23 27 32 43 58 63 65 68 70 73 76 78 76 75 75 76 77 80 82 84 88 82 75 92 100 100 100 100 91 78 86 92 89 90 99 99 86 82
26 30 37 54 61 65 68 70 72 73 75 78 80 81 81 82 84 83 86 89 89 86 95 93 100 100 100 95 85 81 94 92 86 88 88 92 83 70
28 32 43 60 65 68 69 70 73 78 83 85 86 87 88 90 93 89 91 94 92 92 90 100 100 100 100 97 80 84 92 79 82 85 87 90 91 77
30 36 47 63 69 72 72 74 79 81 84 87 89 91 92 94 93 93 94 95 96 93 97 99 99 100 100 100 100 85 78 93 93 91 89 94 86 75
30 34 42 58 69 72 73 78 82 83 87 90 92 93 94 96 95 96 95 96 99 98 94 87 84 86 97 100 97 89 84 82 89 100 96 100 96 89
31 32 37 48 65 72 74 78 81 86 88 92 93 95 96 100 99 99 99 99 95 95 94 88 82 80 86 99 99 100 99 82 83 82 83 88 100 98
32 34 35 40 52 69 76 78 81 83 88 94 96 96 97 97 98 98 98 98 97 95 92 90 86 82 89 100 100 100 100 96 94 76 75 72 82 85

GFSNE_850_rhum_069.txt.gz
RH
92 92 92 92 92 98 100 100 100 100 98 97 84 82 78 88 99 100 96 100 99 99 95 85 86 95 97 93 83 48 23 26 44 78 95 96 96 97
98 98 91 94 100 100 100 100 100 100 100 100 98 98 99 100 100 97 99 100 99 95 98 99 100 99 82 42 28 21 28 68 95 99 99 100 99 99
98 95 96 99 96 99 98 100 100 100 99 99 100 98 100 97 100 96 99 96 97 100 100 98 73 52 31 17 14 38 75 97 97 98 100 100 99 100
99 97 99 99 100 100 99 99 100 100 97 100 98 100 96 99 98 98 100 99 100 90 64 45 27 33 32 30 39 55 63 71 98 100 100 99 100 100
96 98 99 100 100 100 96 98 100 100 98 98 100 99 99 100 100 100 98 81 52 37 30 38 30 24 30 34 63 76 81 78 84 88 89 92 95 98
100 100 99 99 98 98 94 98 99 100 100 100 100 100 100 98 85 53 40 39 46 45 42 30 22 34 39 44 47 46 47 47 48 50 72 85 92 98
98 97 95 96 97 94 97 99 99 99 98 85 76 84 56 37 48 55 49 54 57 36 27 38 40 42 46 49 50 48 48 49 58 85 98 98 99 100
94 94 97 98 94 96 99 99 98 95 78 31 32 42 60 59 64 68 60 60 37 34 46 42 45 46 49 50 51 51 53 52 51 56 84 99 100 100
98 98 96 98 98 86 67 39 32 28 26 31 42 52 54 56 65 64 53 44 41 50 52 42 48 47 52 51 53 53 52 56 59 61 78 98 100 100
52 34 28 22 21 18 18 22 30 37 39 47 52 55 56 58 54 50 40 50 55 59 57 54 52 48 48 49 48 54 58 61 65 66 66 68 87 98
18 18 17 19 22 25 27 31 39 53 68 77 68 51 42 39 39 41 55 63 61 59 60 60 59 51 49 50 53 54 57 63 63 66 68 67 68 94
22 28 30 29 29 28 26 31 40 49 49 49 49 53 62 64 68 67 66 65 66 63 69 71 73 76 64 51 54 53 58 57 60 58 65 66 65 66
25 27 29 26 25 22 22 25 34 43 44 51 69 70 70 72 75 77 76 72 66 66 76 85 74 82 99 82 48 53 56 58 57 60 64 74 77 78
26 26 25 23 23 25 30 38 51 61 66 67 67 66 66 66 65 68 69 67 68 72 76 89 87 86 93 87 87 63 64 61 56 62 72 74 76 84
24 22 24 25 29 38 54 64 66 66 66 67 68 69 68 70 69 69 68 69 68 69 73 82 82 88 100 100 99 88 86 61 57 65 74 74 74 72
21 20 23 26 38 54 62 65 66 67 68 69 70 70 69 69 69 70 69 71 68 66 77 86 90 100 99 100 100 86 83 98 70 71 81 76 74 74
19 22 28 37 53 62 65 66 68 71 71 72 74 74 76 76 76 80 80 80 81 73 71 80 86 100 100 100 88 78 82 81 79 81 85 79 72 74
21 25 31 43 58 63 66 67 70 71 74 77 83 86 87 87 87 89 92 90 88 81 78 80 84 96 89 79 80 74 88 86 79 84 89 96 82 73
24 28 32 43 59 65 67 69 70 77 81 83 86 89 92 93 93 94 94 94 89 86 83 83 86 99 100 95 76 78 88 85 80 77 80 84 88 74
24 26 31 39 54 64 68 69 74 79 83 85 88 91 94 95 93 94 95 96 92 91 88 86 83 90 100 100 100 72 68 79 89 88 78 88 84 72
27 28 30 34 41 56 66 70 74 79 83 86 89 94 96 98 95 95 95 97 100 99 94 85 83 89 93 97 91 71 67 77 87 100 92 99 100 98
27 29 31 33 37 42 55 65 71 74 78 82 87 94 99 100 100 100 99 98 96 97 93 87 84 87 82 90 99 90 79 96 80 80 82 92 100 100
28 30 31 33 35 38 42 52 65 70 73 78 83 94 99 99 99 98 98 97 97 96 93 91 90 89 87 92 97 94 95 100 74 78 74 75 88 85

GFSNE_850_rhum_072.txt.gz
RH
78 80 91 97 92 100 97 99 100 100 99 97 100 99 98 97 100 99 100 100 99 99 100 100 100 99 95 99 100 100 98 82 61 40 53 94 94 95
77 73 86 98 94 91 98 98 100 100 100 98 98 99 100 96 100 98 99 100 100 100 99 100 98 98 99 100 99 81 65 60 54 93 98 94 96 100
73 89 97 94 95 98 99 95 96 100 100 100 100 98 100 100 100 100 100 100 100 100 100 98 99 100 96 71 57 35 49 66 96 97 100 99 100 96
94 96 95 93 91 92 98 99 98 99 100 100 100 100 99 99 100 98 100 100 100 100 99 100 94 63 52 34 27 35 62 72 88 93 95 99 100 100
89 87 87 87 92 98 98 98 98 99 100 99 98 100 100 98 100 100 100 99 99 98 84 55 36 28 28 19 31 85 84 71 55 47 40 49 76 96
95 100 98 100 100 98 97 98 99 100 98 96 99 99 100 100 100 99 98 82 50 41 37 35 32 25 22 36 40 44 45 43 41 42 45 65 84 96
94 94 95 93 91 94 97 99 100 100 97 99 100 99 97 97 76 54 47 52 53 47 37 30 28 37 44 47 48 47 46 45 45 53 80 98 100 100
92 91 93 95 96 98 99 100 100 100 97 82 45 49 48 48 52 54 56 58 52 35 30 41 49 47 51 50 50 52 50 50 52 53 67 79 82 97
92 92 92 95 93 78 52 25 24 25 25 26 35 46 52 56 63 71 72 64 48 52 53 44 49 50 52 54 53 50 52 55 56 59 58 62 68 67
20 16 17 17 17 14 18 21 27 32 40 41 44 48 54 56 57 58 58 48 50 57 56 50 52 51 53 51 47 52 57 58 60 61 62 62 62 65
14 14 16 17 21 17 18 21 27 37 50 55 62 59 51 50 53 46 50 64 60 60 62 61 57 52 49 51 55 56 55 60 60 57 55 53 57 60
16 18 19 19 21 21 19 21 27 42 46 45 48 55 60 66 69 68 68 69 69 61 62 67 62 63 57 57 55 55 55 62 61 57 54 54 57 61
18 20 22 20 20 19 19 24 30 32 43 51 59 65 66 65 66 66 68 68 71 70 69 75 71 76 83 65 47 46 55 59 58 51 54 68 73 75
23 22 21 23 25 27 33 40 52 58 62 64 65 66 66 67 63 63 65 65 67 71 77 83 82 91 100 91 66 54 59 59 59 50 58 63 70 76
19 18 19 24 28 36 48 58 63 65 66 67 68 69 70 69 68 67 67 68 70 73 83 92 94 88 100 99 85 70 63 53 56 63 66 66 68 71
18 19 20 24 29 44 58 64 65 66 67 69 71 72 72 70 70 70 69 71 71 72 82 87 96 97 90 86 89 67 70 82 60 65 72 70 65 67
18 20 24 29 41 54 60 63 65 68 70 68 69 72 75 76 76 78 79 78 79 72 70 74 90 94 90 84 80 70 71 72 69 69 75 75 65 67
20 22 26 28 40 56 62 65 68 69 69 72 76 79 81 84 85 87 89 88 87 83 81 77 75 78 78 69 73 67 70 73 73 76 76 82 76 62
22 24 26 30 34 50 61 65 65 66 71 76 79 82 85 88 91 92 94 94 91 90 87 87 89 93 94 87 72 78 78 77 81 77 77 80 87 72
23 24 26 28 31 36 50 60 64 68 72 77 81 84 88 94 92 91 95 95 94 92 88 85 87 95 100 100 99 67 74 78 80 81 72 78 77 68
24 25 26 27 28 31 36 45 53 62 68 72 76 81 86 94 93 94 95 97 96 98 96 90 88 96 98 100 99 78 68 68 76 87 85 99 93 96
22 25 27 29 31 32 32 34 37 46 59 68 72 75 80 93 95 95 96 96 93 93 92 89 88 90 93 96 90 84 69 63 70 74 79 83 86 100
21 24 27 29 31 32 32 33 35 36 44 56 66 71 76 84 94 96 97 97 96 95 92 89 90 92 90 90 90 86 80 72 75 74 71 70 69 77

GFSNE_850_rhum_075.txt.gz
RH
94 76 82 84 86 94 91 89 90 100 100 98 100 100 99 98 100 97 100 100 100 100 98 100 100 100 100 100 100 99 99 99 99 98 81 77 92 96
63 71 81 86 80 89 95 99 98 99 100 98 98 96 98 99 100 100 100 100 100 100 100 100 100 100 100 99 99 100 100 99 94 85 95 98 96 97
62 68 75 85 92 91 93 94 91 91 99 99 100 98 99 100 100 100 100 99 99 100 99 99 98 99 99 100 99 98 86 86 89 94 97 97 98 98
78 92 95 94 92 92 89 88 91 92 97 95 98 100 100 100 100 100 100 100 100 100 99 99 99 99 99 99 97 76 43 66 73 57 74 94 98 100
81 84 86 86 86 91 100 99 98 95 97 100 99 100 99 100 100 100 99 100 100 100 99 99 96 93 88 58 44 34 68 87 53 43 45 56 67 96
84 97 99 99 97 94 93 93 93 94 97 99 99 99 100 100 100 99 100 100 98 87 59 47 41 42 40 35 24 27 36 45 44 43 42 44 64 92
88 92 93 92 94 99 96 93 94 95 97 98 99 100 99 98 96 88 69 55 50 49 46 36 33 28 29 35 41 47 47 46 46 44 47 76 91 100
88 89 89 90 92 93 94 96 96 93 89 74 47 39 38 38 43 48 53 56 46 43 27 23 25 38 46 46 49 50 48 47 48 50 50 60 70 79
75 77 69 59 52 42 25 18 17 17 18 20 22 24 29 38 46 55 59 55 38 34 29 34 48 50 52 51 51 50 52 54 55 53 47 47 52 56
12 12 11 12 12 13 15 15 17 22 27 32 35 37 38 41 45 45 43 40 35 38 50 48 51 52 55 54 52 50 50 53 54 52 53 55 53 49
11 12 12 15 17 16 16 16 20 29 38 43 43 47 48 47 53 43 37 52 54 54 56 56 51 49 49 48 48 49 55 56 55 57 57 53 50 48
12 14 14 15 18 17 16 16 18 24 31 33 34 38 49 56 67 72 70 68 64 60 61 68 62 57 51 52 56 58 57 60 59 64 61 56 50 49
13 15 16 16 16 14 14 18 21 25 38 50 56 59 62 64 67 71 74 75 73 72 74 81 77 65 62 56 50 58 61 57 60 61 61 53 59 65
14 16 16 15 15 17 23 29 41 53 57 60 62 64 67 68 69 67 69 72 70 73 73 82 86 82 94 81 64 54 50 51 56 59 58 65 68 68
13 13 13 16 20 26 35 45 56 58 59 61 64 65 66 66 68 67 64 66 67 68 69 73 84 91 98 90 69 60 55 50 56 58 64 67 67 65
13 14 16 18 22 28 40 52 57 59 60 61 62 66 68 68 67 66 64 66 67 68 77 80 78 83 87 84 82 63 58 69 61 62 68 64 64 64
13 16 18 22 27 37 49 56 60 63 64 64 65 67 72 76 79 80 79 80 81 80 83 88 86 85 90 92 87 71 63 67 68 68 73 69 62 59
15 18 20 21 24 29 41 54 59 63 64 63 66 72 75 80 81 83 87 88 86 84 87 91 92 89 87 80 82 74 73 73 69 73 75 77 62 56
15 17 19 21 22 25 30 40 52 60 62 62 68 73 78 80 83 84 87 90 86 86 86 88 90 95 96 88 79 84 82 80 81 82 79 76 73 59
14 16 19 22 24 25 27 30 36 45 53 61 67 72 79 83 84 84 90 92 90 88 84 85 86 94 100 95 96 76 78 79 82 78 72 73 70 68
16 16 19 21 23 25 27 29 30 32 36 42 57 68 74 80 80 86 93 95 96 94 90 87 89 97 97 99 94 76 76 82 79 77 78 87 82 76
15 16 18 20 23 26 28 29 30 32 33 36 38 50 64 74 76 80 89 94 94 95 93 89 88 92 94 95 91 86 76 70 74 76 78 85 93 100
14 15 17 20 22 28 30 30 30 31 34 38 40 43 53 62 70 76 81 86 93 96 95 91 89 92 91 94 95 90 83 76 73 67 62 67 71 74

GFSNE_850_rhum_078.txt.gz
RH
98 100 100 88 84 89 92 94 100 99 95 94 100 97 82 88 80 85 96 99 100 100 99 100 100 100 99 98 100 99 99 100 100 99 99 100 98 99
77 71 66 75 92 94 89 94 94 98 99 99 97 85 93 93 89 98 98 100 98 100 100 100 97 99 100 100 100 99 99 99 99 98 98 98 99 99
60 65 73 80 88 94 94 91 90 85 88 91 94 89 90 85 90 99 99 99 100 100 99 99 99 99 99 99 100 99 99 98 98 98 98 99 100 98
76 80 88 96 94 92 90 85 88 88 89 89 90 94 98 92 97 99 98 98 99 100 99 99 100 100 100 100 99 96 96 93 68 75 98 98 100 99
82 82 85 87 86 85 91 98 99 96 90 90 91 99 100 97 97 97 99 99 100 99 99 99 98 99 100 98 94 65 43 43 77 42 60 69 85 97
82 85 99 98 97 96 92 93 95 94 93 92 98 100 100 98 98 98 98 99 100 96 89 77 59 49 52 54 46 39 32 27 39 47 46 44 42 59
86 89 92 90 90 92 92 91 93 94 94 96 94 93 92 90 86 82 73 62 53 48 42 38 36 31 30 24 21 24 32 39 43 45 46 66 81 78
85 87 86 88 86 85 81 68 49 41 33 31 31 31 32 34 38 42 43 40 38 34 26 24 22 19 25 34 39 40 42 45 46 46 47 49 59 55
24 22 18 14 12 13 14 14 14 13 12 14 18 21 25 29 37 41 42 40 36 33 26 24 40 44 45 48 49 49 49 49 50 49 49 48 47 49
9 10 11 10 10 12 12 13 13 15 16 17 22 28 30 32 35 43 44 39 36 32 41 48 51 51 51 51 50 50 50 48 48 50 50 47 46 47
9 11 11 12 12 10 11 11 13 16 21 23 23 24 28 34 28 32 37 41 45 55 57 58 52 50 52 52 52 50 51 55 58 57 51 50 51 49
10 11 10 10 11 12 12 11 14 19 22 26 30 30 36 44 50 52 54 54 55 58 58 64 61 60 54 56 58 64 66 68 64 58 52 54 54 51
10 11 11 10 10 11 11 14 18 25 33 42 48 52 55 57 59 60 62 61 58 59 66 75 68 65 66 58 53 61 64 64 64 60 58 56 55 54
10 11 12 11 11 12 14 18 28 43 49 51 53 55 58 60 62 62 63 63 64 64 65 74 86 79 92 80 66 58 59 60 54 53 54 57 57 58
12 11 11 12 14 18 22 26 46 50 52 54 56 57 59 61 63 62 60 59 59 61 66 70 74 75 87 81 73 66 66 52 53 60 63 65 60 62
13 13 13 14 16 20 28 39 47 52 54 56 56 58 59 59 62 65 66 68 66 66 80 84 84 82 78 74 74 65 70 72 62 62 67 63 62 64
11 13 15 15 16 18 24 32 43 51 55 58 59 60 59 63 66 72 73 76 78 77 80 89 92 89 84 84 74 67 67 67 65 65 72 67 59 62
10 13 15 15 17 18 20 24 29 40 51 57 60 59 62 67 72 76 80 83 85 85 86 90 90 88 84 78 80 76 76 75 74 74 77 78 68 62
11 13 13 15 17 19 20 21 22 27 31 39 50 56 63 68 76 80 85 91 88 89 88 92 92 95 94 88 75 86 79 77 79 76 78 78 76 61
12 12 12 14 16 18 21 23 24 26 27 29 31 37 51 65 71 73 80 87 89 87 84 86 90 96 98 96 95 76 81 82 82 79 76 75 73 67
11 12 12 13 15 17 20 23 25 26 28 29 29 32 37 44 56 67 72 80 88 90 87 83 90 99 95 98 92 78 78 82 81 81 76 77 73 69
10 11 12 13 13 15 18 22 27 30 30 31 32 34 37 42 46 53 63 68 73 80 82 81 87 95 96 98 94 89 77 74 75 78 79 80 86 100
10 10 11 12 14 16 18 20 24 33 40 43 45 46 49 52 58 66 74 79 80 82 84 83 88 92 88 93 95 90 78 72 75 76 69 72 79 74

GFSNE_850_rhum_081.txt.gz
RH
89 86 93 97 100 98 97 99 99 99 95 91 86 89 81 84 84 83 83 92 98 99 99 99 100 100 100 97 99 99 100 97 97 99 99 99 98 99
95 94 92 86 76 70 92 95 91 91 93 95 89 88 83 87 85 84 90 92 94 96 99 100 99 99 99 99 99 98 98 98 99 100 99 99 99 98
57 57 60 66 76 85 91 95 87 88 86 86 84 87 89 91 90 94 100 100 99 99 100 100 98 99 97 98 97 99 99 100 99 100 99 99 98 97
65 70 76 82 92 93 92 88 84 88 87 90 86 92 97 93 95 98 99 96 98 98 99 98 97 96 95 94 98 98 97 97 98 98 93 75 98 97
81 81 83 88 87 86 87 92 96 93 92 91 93 95 98 99 99 99 95 98 98 97 95 95 94 94 93 97 97 94 93 90 58 28 28 46 75 96
83 81 89 100 98 94 93 88 88 87 86 90 93 99 99 98 98 96 93 92 92 93 91 87 83 78 73 73 56 39 34 28 19 20 37 47 46 44
85 86 89 88 88 86 82 84 84 84 85 86 87 88 86 80 70 62 55 52 46 42 38 34 31 29 29 30 29 24 23 24 34 43 45 45 63 70
81 80 79 80 65 38 37 20 11 13 14 15 16 21 24 26 27 29 30 31 34 29 26 25 20 19 20 25 32 39 42 46 48 49 47 47 46 45
24 13 10 8 7 8 10 9 11 10 11 13 16 18 21 24 26 27 30 32 34 33 27 23 29 38 42 45 47 50 51 53 54 53 52 50 49 46
8 8 7 8 8 8 8 8 10 13 16 16 18 20 21 21 22 23 23 24 25 27 34 40 46 50 51 50 51 52 52 50 49 50 52 51 48 45
9 9 8 9 8 8 8 9 10 12 14 15 16 16 19 20 23 28 39 47 50 50 50 52 51 50 51 51 52 52 48 51 53 53 53 50 47 45
9 9 9 9 7 8 9 10 12 14 16 23 31 33 36 40 42 47 50 50 52 55 55 57 51 50 52 55 56 59 60 61 62 60 56 52 48 48
10 10 11 9 9 9 9 13 15 21 33 40 42 44 46 48 51 54 55 56 56 57 58 60 60 63 62 56 54 59 62 60 59 58 59 56 48 52
10 11 10 10 11 13 14 16 19 30 40 43 45 48 50 52 54 54 54 54 56 56 58 60 67 67 69 68 57 54 58 59 61 60 59 53 52 54
11 10 10 11 13 15 18 24 31 39 42 44 46 49 52 55 56 58 58 58 58 59 62 67 68 74 78 76 69 66 62 56 58 54 56 60 62 62
11 11 12 12 14 16 19 26 34 39 42 46 49 51 52 54 56 58 59 62 64 69 80 83 82 83 82 81 82 74 76 75 71 70 67 60 57 60
9 10 13 14 15 16 18 20 23 29 35 41 47 52 54 55 57 64 66 70 72 72 75 87 89 86 84 85 82 76 76 75 75 74 76 68 61 62
9 10 12 13 14 16 17 19 19 20 23 27 32 40 45 52 58 64 71 74 75 76 77 85 89 89 85 79 79 76 76 76 78 78 79 78 67 66
9 11 11 12 13 15 16 18 20 22 23 23 26 28 32 35 45 60 66 74 75 76 78 86 90 95 94 88 75 80 78 78 78 75 79 80 76 64
9 11 11 12 12 13 15 17 20 23 24 25 26 28 30 34 35 39 51 66 71 71 70 76 85 96 98 98 92 71 77 80 82 79 77 79 76 69
10 10 11 12 12 13 14 17 19 22 24 28 29 29 31 34 36 39 41 48 59 66 66 67 77 90 94 99 93 76 73 79 84 85 78 81 81 77
9 10 10 11 12 14 15 16 19 20 22 27 35 38 39 40 42 45 49 54 62 69 73 71 74 79 86 96 96 90 80 77 78 78 76 80 85 93
11 10 10 10 11 12 14 17 20 22 24 24 31 44 54 59 64 68 71 73 76 78 82 82 85 87 88 93 93 88 81 76 74 73 68 74 90 80

GFSNE_850_rhum_084.txt.gz
RH
91 92 95 88 85 94 98 98 98 97 92 95 90 84 85 88 83 88 83 81 84 96 96 93 100 100 100 100 96 98 96 98 99 98 98 96 96 96
91 96 87 90 99 99 93 85 97 96 97 91 90 87 86 84 86 86 84 88 93 99 100 99 99 100 100 99 100 100 99 98 98 99 98 97 98 98
71 79 85 78 66 71 82 85 90 88 88 86 83 84 88 90 90 88 93 98 99 98 100 100 98 100 99 99 96 96 97 98 98 98 95 93 99 99
61 62 62 68 74 78 87 89 88 85 86 86 88 83 92 94 92 91 92 96 98 100 100 100 97 96 94 93 93 88 89 91 90 86 86 89 98 99
69 72 77 78 80 85 86 87 89 90 91 94 89 87 91 99 98 99 94 93 94 96 94 91 90 89 86 86 86 87 89 88 87 85 78 69 60 71
82 82 79 80 89 90 90 91 88 88 87 86 85 87 93 94 92 89 89 89 90 88 87 84 81 76 73 73 71 64 53 40 32 26 25 28 38 51
86 83 82 87 92 89 84 82 80 79 79 75 66 67 73 66 61 48 44 37 32 29 28 25 24 23 23 23 23 23 23 21 22 21 26 39 49 65
85 82 81 82 82 71 48 27 11 9 9 10 12 21 20 22 21 22 24 26 56 19 19 19 14 16 15 15 16 19 22 28 31 39 46 55 64 71
75 57 30 15 8 9 8 6 6 7 7 9 14 18 21 19 20 21 23 24 32 26 18 29 19 27 31 35 37 40 43 45 47 48 48 48 52 62
9 8 8 9 10 7 6 7 8 10 11 10 14 16 16 16 16 20 22 22 24 24 30 38 39 44 43 44 44 46 45 44 44 44 46 50 53 53
9 9 9 9 8 5 7 8 9 10 11 10 11 12 13 16 20 27 37 43 60 51 43 47 47 46 46 45 45 44 43 44 48 49 51 53 54 52
9 10 9 8 6 6 9 10 12 13 14 21 29 32 35 36 38 42 45 47 50 60 48 51 49 51 54 49 49 49 52 51 52 51 52 53 54 53
10 11 11 8 8 9 9 13 14 18 29 36 38 40 42 43 45 47 48 51 52 55 58 55 56 57 63 60 54 53 53 53 52 52 54 54 53 53
13 12 11 9 10 12 13 16 17 23 34 39 41 43 45 47 49 50 51 52 54 55 56 57 59 63 66 64 63 63 59 57 57 56 57 56 55 52
12 12 10 10 11 13 15 19 24 31 37 40 42 44 46 48 50 49 50 53 53 56 59 62 63 66 73 74 72 73 73 68 69 59 59 57 60 57
11 11 11 12 12 14 15 18 24 29 33 37 40 43 46 49 49 50 52 55 57 60 66 71 75 79 79 78 78 73 74 76 72 72 70 65 64 60
13 12 12 14 15 14 16 17 19 20 23 27 31 34 39 44 48 52 55 61 66 68 75 82 82 80 80 82 78 74 74 73 71 71 74 70 68 69
11 10 12 14 15 14 14 15 16 18 20 21 23 26 30 34 37 40 49 61 64 70 77 83 87 87 84 73 72 70 73 75 76 78 78 76 65 64
11 11 12 14 13 13 13 14 16 18 20 22 24 25 26 29 31 33 37 51 62 66 70 75 80 86 89 98 85 72 71 74 81 80 82 80 75 65
11 11 12 13 13 13 13 13 15 18 21 23 25 27 29 30 31 34 44 48 43 49 53 63 72 78 87 90 96 68 75 79 84 84 78 83 76 68
10 11 12 12 12 12 13 14 14 17 21 22 23 27 32 34 35 36 38 42 52 58 51 58 83 88 86 90 82 65 69 83 81 82 80 84 77 68
11 10 10 11 11 11 12 13 14 16 21 23 25 26 30 38 42 45 49 53 58 66 66 66 72 80 85 89 84 83 78 81 80 76 74 75 77 84
17 15 13 12 11 11 12 12 13 17 23 26 29 32 29 32 42 52 60 65 68 69 71 71 78 92 96 97 94 89 82 77 76 73 71 72 73 72

GFSNE_850_rhum_087.txt.gz
RH
91 94 92 91 97 100 91 89 91 92 89 89 94 92 88 87 89 83 84 84 84 89 92 92 99 98 100 100 100 98 96 93 94 90 98 100 100 95
96 100 100 96 100 90 90 95 98 97 94 98 96 90 87 83 85 84 85 89 90 96 99 100 100 100 100 100 100 100 96 96 96 99 98 98 98 97
76 89 96 97 95 88 75 70 81 88 100 99 87 86 84 87 86 85 87 90 98 100 100 100 98 96 100 99 98 94 93 92 89 92 99 99 100 100
68 71 72 71 65 67 73 81 85 88 90 87 84 85 88 84 87 88 88 90 92 98 100 99 97 99 96 94 90 89 88 86 85 88 86 94 100 100
68 68 67 72 76 77 81 86 86 87 87 87 88 90 86 83 87 94 91 89 90 92 93 91 90 92 93 90 87 86 86 86 86 86 87 87 89 90
76 76 80 81 84 84 85 86 88 86 86 85 83 82 79 70 76 78 78 71 77 79 82 84 83 82 81 81 80 74 68 61 47 37 28 22 19 20
91 90 88 84 87 88 86 84 82 81 79 79 75 60 51 45 42 34 34 30 27 22 20 21 19 19 18 17 18 17 19 20 21 20 20 18 24 38
95 89 88 90 88 86 81 69 53 29 20 16 16 24 23 18 16 16 17 18 49 27 21 17 15 15 13 12 14 12 13 16 22 27 28 36 53 63
87 84 81 66 42 13 8 7 6 6 6 8 12 16 18 13 15 15 16 18 26 26 13 18 20 24 27 27 30 31 31 33 35 38 41 43 43 46
61 31 14 9 9 9 7 7 7 8 8 9 10 10 10 12 12 13 16 19 27 27 29 33 41 38 38 38 37 39 40 40 41 40 40 40 41 43
9 9 10 10 10 6 7 8 9 10 9 8 8 10 13 15 17 20 27 35 56 60 39 41 45 41 41 42 41 41 40 42 44 44 44 44 45 45
10 10 9 10 8 6 8 10 12 12 12 16 24 27 28 30 33 35 37 40 43 56 47 45 41 42 44 46 44 44 45 44 46 46 46 46 46 47
11 11 10 8 7 8 9 12 15 16 23 29 33 33 34 35 37 39 42 43 44 46 45 46 46 47 48 44 42 46 46 46 45 45 45 45 47 48
12 11 10 9 8 10 11 12 15 17 28 33 34 34 37 39 40 43 44 46 46 48 51 49 52 53 53 50 45 53 52 53 57 55 51 49 48 49
12 12 11 10 10 10 12 14 18 23 29 31 32 34 37 39 43 44 44 46 48 50 52 55 56 58 60 62 61 60 62 59 63 61 58 59 56 52
10 11 10 10 12 13 14 14 16 21 24 26 28 30 32 37 40 40 42 47 50 51 57 60 64 67 68 68 69 63 69 73 67 69 67 62 62 66
13 12 12 12 14 15 15 15 16 17 18 20 22 24 26 28 30 31 33 42 51 57 60 64 66 68 70 72 67 66 71 72 72 70 69 64 63 64
12 10 10 11 12 15 15 14 14 15 16 18 20 21 23 25 27 28 27 26 33 49 64 75 74 71 70 61 62 62 70 73 74 74 74 74 63 62
10 10 10 10 11 14 14 13 13 14 16 17 21 23 25 26 29 29 32 31 28 31 46 75 80 83 88 73 59 70 71 76 79 72 75 79 77 63
10 10 10 10 12 13 13 13 13 14 14 17 21 24 26 26 29 31 33 35 36 38 43 50 58 68 82 76 80 59 74 71 75 75 73 79 78 72
9 10 11 12 12 13 13 13 13 14 14 16 20 24 26 27 28 31 36 40 45 53 52 53 62 98 98 98 88 63 66 74 80 86 82 85 75 67
15 14 12 11 11 12 13 13 14 14 14 15 19 24 28 31 35 32 34 40 46 53 56 60 67 75 77 86 82 78 75 76 79 84 92 86 80 87
23 23 22 20 17 14 14 13 13 13 13 14 18 25 30 56 42 40 33 33 42 53 60 64 67 74 80 98 99 93 88 79 75 73 68 72 76 74

GFSNE_850_rhum_090.txt.gz
RH
63 92 99 99 87 87 91 79 99 95 94 92 94 86 90 90 88 85 87 85 86 87 91 96 100 98 94 94 98 100 100 100 99 99 90 86 88 99
65 100 90 100 97 92 93 100 95 95 92 99 96 94 97 87 84 85 87 89 92 95 98 99 99 98 99 99 100 100 100 98 96 92 87 90 94 95
65 87 100 99 99 98 99 96 91 84 98 100 99 99 88 86 84 89 90 94 98 100 100 100 100 95 96 91 95 97 96 93 90 86 86 84 94 98
68 71 78 89 90 84 72 69 73 82 88 100 99 90 88 90 88 88 88 91 93 96 100 100 88 83 87 92 92 92 88 86 85 83 83 84 90 100
74 73 72 70 69 68 74 79 83 86 89 89 87 90 92 88 83 85 88 91 89 88 88 91 88 87 85 85 84 77 82 84 82 84 84 85 86 91
76 72 70 73 79 83 83 84 86 88 90 91 84 84 82 78 68 70 68 70 62 62 65 67 71 74 78 77 78 79 80 80 76 67 62 60 51 39
98 89 88 89 88 86 85 85 87 85 84 77 73 70 55 42 38 37 33 28 19 21 22 16 17 18 16 17 18 19 20 22 24 23 21 18 16 15
100 100 97 92 93 95 94 86 80 77 66 51 36 24 25 21 16 17 14 14 19 22 20 16 16 16 15 16 16 15 14 14 15 17 22 24 28 26
100 96 94 90 89 84 76 51 23 9 6 8 9 15 16 16 14 11 12 13 14 16 12 14 20 20 24 27 28 27 28 30 31 32 34 38 41 42
95 91 83 52 23 10 8 8 8 8 7 7 9 12 11 10 10 11 13 13 17 26 26 27 30 33 33 33 33 36 37 39 40 41 41 43 42 40
51 27 13 12 11 8 6 8 9 9 9 8 7 8 10 13 16 18 20 25 28 32 36 35 32 34 34 37 38 39 41 41 42 43 45 45 45 44
13 13 11 12 13 7 7 9 10 11 12 12 17 22 25 27 27 28 30 31 35 38 40 40 36 37 39 40 42 40 41 42 44 47 46 45 45 45
13 12 14 11 8 7 8 11 13 15 15 22 25 27 27 29 31 32 33 35 38 41 39 42 42 40 39 38 40 43 43 43 43 42 42 43 45 46
13 12 13 12 9 8 9 11 13 14 19 25 26 26 28 30 31 34 35 37 37 39 43 42 45 47 44 42 40 47 48 52 54 56 55 55 54 52
12 12 12 12 10 9 10 12 14 15 20 24 25 25 27 29 30 31 32 34 36 39 42 45 48 53 53 53 52 52 54 56 62 59 59 59 59 59
9 10 11 11 10 11 12 13 13 15 18 20 21 21 22 24 24 24 23 22 23 30 38 44 52 56 58 61 64 56 62 68 65 67 66 62 59 57
15 12 11 11 12 12 13 14 14 15 16 17 17 18 19 21 22 22 21 21 20 20 25 37 49 55 58 61 54 54 61 65 69 69 69 61 56 59
13 12 11 11 11 11 12 14 13 12 14 15 16 17 20 22 24 25 25 24 24 25 25 28 42 54 54 45 49 50 58 61 67 67 66 70 53 54
12 10 9 9 9 10 11 12 12 12 13 13 14 17 21 24 26 26 26 26 27 29 31 34 38 59 65 47 39 52 54 65 72 65 71 73 72 54
9 8 9 9 10 10 11 12 13 14 13 13 14 15 20 25 27 28 28 29 30 32 36 40 43 48 57 60 60 49 70 72 77 73 70 73 73 70
10 8 8 9 10 12 14 15 16 15 15 14 14 14 17 24 27 30 32 34 34 34 35 41 54 72 79 90 76 53 59 70 80 80 77 80 72 68
16 15 13 13 13 13 13 14 14 15 15 14 13 14 15 20 26 31 40 42 39 36 35 44 56 65 73 81 72 67 66 73 79 82 84 85 88 97
27 23 22 22 23 24 23 20 17 15 14 14 14 13 14 17 25 37 57 50 46 41 32 34 47 63 67 75 83 75 78 79 80 73 67 75 79 78

GFSNE_850_rhum_093.txt.gz
RH
48 52 62 67 85 99 94 95 84 100 98 100 100 98 94 91 93 88 83 82 84 86 87 97 99 99 99 97 98 98 99 86 100 100 99 91 90 89
48 53 66 84 99 87 96 100 91 99 100 98 98 96 99 99 94 83 82 88 90 94 98 99 98 96 95 99 98 99 100 100 100 97 92 89 89 87
49 55 74 100 98 100 96 94 95 95 100 100 98 98 99 99 86 82 84 93 100 100 100 100 100 100 100 94 90 99 100 98 96 93 89 86 88 86
57 61 63 88 99 99 100 100 100 91 80 100 99 97 100 90 89 86 88 91 97 100 100 100 99 93 85 86 89 88 91 93 90 88 85 83 85 88
70 74 74 73 76 80 82 75 77 80 83 92 99 97 93 94 88 86 83 90 92 90 89 91 91 88 87 84 84 84 84 82 81 80 77 81 81 83
73 80 80 74 75 81 84 85 85 87 88 89 86 87 94 87 81 72 67 69 62 54 50 55 61 62 68 73 75 78 79 80 80 76 70 66 70 77
92 93 91 87 88 88 88 87 88 88 86 86 82 81 78 70 48 48 46 47 31 25 21 20 16 14 15 15 15 15 16 18 19 19 18 17 16 16
99 100 100 99 100 98 95 93 90 88 81 79 75 57 33 26 22 19 19 20 16 22 24 16 14 16 14 13 12 11 11 11 12 14 16 19 20 20
98 99 100 100 98 97 97 93 85 76 55 24 14 11 14 16 14 12 11 13 13 14 14 13 17 18 22 26 27 27 25 26 27 26 27 31 34 38
99 100 100 95 90 78 54 37 18 8 6 6 7 11 13 11 10 9 9 11 13 20 24 24 30 31 31 31 33 34 35 36 37 37 38 40 40 40
99 95 82 52 23 12 11 10 9 9 8 8 9 9 8 8 12 15 15 20 22 30 33 31 29 33 33 33 36 36 39 39 39 40 42 43 45 45
38 22 14 15 13 12 8 8 11 11 11 10 9 14 19 20 22 24 25 27 29 28 31 32 31 33 35 39 42 41 41 41 41 44 45 46 46 46
14 14 13 12 11 11 7 10 12 14 14 15 22 24 24 25 26 27 29 31 34 33 32 36 33 35 37 37 38 40 39 41 43 45 45 44 43 44
14 15 15 14 13 9 8 8 12 15 17 21 23 25 26 26 27 29 28 31 34 35 35 36 37 39 38 37 40 42 44 48 48 52 53 54 56 56
14 14 14 14 13 10 9 10 11 14 16 19 23 22 24 23 24 24 22 24 25 27 32 35 38 41 42 42 45 45 46 53 57 56 60 59 57 58
11 13 14 14 13 12 11 11 13 16 17 20 23 22 22 20 21 20 20 20 20 21 22 25 32 38 45 48 50 45 52 55 61 64 60 58 57 57
18 14 12 11 12 12 12 14 15 16 16 18 20 20 19 20 20 22 24 24 24 22 22 22 23 30 36 42 41 45 48 49 59 62 60 51 49 54
21 17 16 15 13 14 14 14 15 16 15 16 16 16 16 18 21 24 28 28 27 26 26 27 27 27 29 34 37 39 44 48 60 60 62 55 44 51
16 12 12 13 12 12 12 12 13 14 15 14 14 15 16 18 21 25 29 30 30 29 30 32 34 36 38 38 45 49 47 55 58 61 66 70 60 53
13 10 10 10 11 11 11 11 11 13 14 13 13 13 15 15 18 23 28 30 32 33 34 35 35 41 50 52 53 50 60 63 69 68 66 69 69 66
21 17 13 11 10 10 11 11 13 14 15 15 14 14 14 15 15 18 25 30 32 39 43 41 41 56 55 61 50 41 52 61 69 71 71 75 72 66
26 24 21 19 17 15 13 13 14 15 15 14 14 14 14 15 15 16 19 28 33 49 50 45 37 41 48 54 49 48 48 55 67 79 81 86 85 88
42 36 33 32 30 25 24 23 23 23 21 18 15 14 16 15 16 16 17 23 30 56 54 49 42 38 37 46 54 50 49 55 68 75 72 80 83 84

GFSNE_850_rhum_096.txt.gz
RH
46 48 49 48 57 70 98 97 96 99 98 99 100 100 100 100 96 92 90 81 80 84 83 82 99 97 99 99 99 94 99 100 100 100 98 99 99 91
50 50 49 52 72 81 81 99 99 99 100 99 99 100 100 98 99 99 84 84 90 94 91 99 96 93 98 100 98 100 100 100 100 100 100 99 94 89
49 50 51 57 82 88 99 99 100 100 98 96 99 99 98 99 98 96 83 83 94 98 99 96 98 97 93 98 99 92 96 99 99 98 98 93 88 82
56 55 58 65 85 100 98 98 100 99 96 96 100 98 99 99 99 90 86 83 89 97 97 86 97 95 95 93 88 88 93 98 97 93 87 86 82 77
59 66 73 77 84 96 99 100 100 99 98 98 100 99 98 99 94 92 83 82 87 92 90 88 87 87 88 84 83 86 88 88 85 82 81 78 72 77
71 77 82 84 83 86 97 94 86 83 84 91 98 100 100 98 94 86 74 69 67 63 54 55 60 60 63 70 76 81 83 81 80 80 82 78 74 72
79 90 93 98 97 86 86 91 89 88 90 90 91 89 92 89 81 69 59 50 41 26 20 19 18 16 15 14 16 19 25 35 46 45 41 34 28 23
100 99 99 99 100 100 100 97 95 95 94 92 89 81 73 72 51 39 36 26 18 16 20 19 14 13 14 12 11 10 10 10 10 11 11 12 13 14
99 99 97 99 100 99 100 99 97 95 91 82 75 56 33 24 25 19 17 13 12 14 17 12 14 16 17 21 20 20 20 21 20 19 20 24 25 28
99 100 99 99 100 100 100 98 95 89 73 36 20 19 16 18 16 14 10 11 13 15 16 18 20 26 27 29 28 31 33 32 32 34 35 37 38 38
99 99 99 100 92 81 54 25 17 11 9 9 8 10 12 11 11 11 11 13 17 24 27 29 27 30 31 30 32 32 36 37 37 37 37 38 38 39
100 97 85 53 28 17 13 14 16 13 13 10 8 7 8 12 16 18 20 24 24 26 27 30 28 31 31 31 35 37 37 35 36 38 39 38 39 40
33 22 15 17 15 20 14 10 15 15 14 13 12 15 19 21 21 23 26 26 27 28 28 32 31 33 35 35 37 36 37 38 40 40 39 39 39 40
17 20 18 19 17 13 10 9 14 16 18 16 19 22 23 23 26 27 26 27 29 28 28 31 34 34 36 37 41 38 40 43 46 43 44 47 48 49
14 17 20 19 18 14 10 10 10 15 18 19 22 25 26 28 27 25 23 24 23 23 22 24 29 33 34 36 42 44 48 52 50 48 51 53 52 54
11 13 16 17 17 16 14 11 11 14 17 18 22 27 27 26 25 24 21 21 22 22 21 20 21 24 30 35 38 40 47 49 52 56 56 53 55 53
20 16 14 13 14 14 14 13 14 14 15 18 21 23 25 24 22 21 21 23 25 25 23 22 22 22 23 27 30 34 41 42 47 51 46 43 49 50
24 22 18 15 13 13 13 14 15 17 18 18 19 21 22 21 21 20 21 25 28 28 27 27 26 27 29 31 32 33 36 38 48 49 47 44 43 50
18 14 15 16 15 16 15 15 15 15 18 19 18 19 19 18 19 18 20 25 31 32 31 32 31 32 34 33 38 39 40 46 49 55 62 58 49 50
16 13 12 13 14 14 13 13 13 14 15 16 16 16 15 15 16 15 17 22 28 32 33 34 36 35 35 40 50 44 44 50 57 59 59 62 58 53
21 19 19 18 16 15 14 14 14 14 15 16 16 16 16 16 15 15 16 18 23 28 33 39 46 47 45 46 47 40 42 52 56 59 60 64 64 61
31 27 26 27 27 24 21 19 16 15 15 17 17 17 17 18 17 15 16 17 19 20 28 35 47 47 42 40 38 36 36 42 49 57 64 73 77 78
89 75 68 73 50 36 36 33 27 23 20 19 19 19 18 17 19 19 19 18 17 19 22 30 47 47 47 43 41 41 42 42 44 48 55 76 85 82

GFSNE_850_rhum_099.txt.gz
RH
44 47 47 51 57 58 70 99 99 100 99 92 99 91 98 100 100 99 92 84 79 79 76 85 99 99 99 98 98 80 91 100 100 95 100 97 96 96
47 46 48 53 54 53 88 98 100 98 88 99 99 100 100 100 99 99 96 91 84 97 98 98 98 96 98 99 98 100 100 100 99 99 100 100 100 100
49 51 50 54 56 59 94 100 98 96 98 98 100 99 100 98 98 97 99 89 90 100 100 99 100 94 93 95 93 100 99 100 100 98 100 100 98 93
52 54 57 59 65 68 88 97 96 99 100 100 99 100 99 99 99 97 99 89 90 99 100 99 100 100 96 88 92 81 84 88 90 94 100 98 91 87
57 61 62 69 71 75 87 99 98 99 99 99 99 99 98 98 98 98 95 91 86 91 93 100 91 87 86 85 88 86 86 80 78 83 80 81 80 78
62 66 74 77 86 93 94 99 99 100 100 100 100 99 98 99 99 100 94 88 80 80 79 75 68 65 65 71 78 79 82 83 85 85 82 78 77 76
66 73 85 93 99 100 96 93 99 96 97 96 100 100 100 100 98 94 88 75 62 50 38 25 19 20 18 17 29 46 62 72 78 80 78 75 72 65
80 99 98 99 99 98 100 100 99 100 100 98 98 96 95 91 93 87 75 51 47 31 21 19 18 15 12 11 11 10 10 9 9 9 11 10 10 10
99 98 100 99 99 97 98 99 100 98 97 99 99 95 84 81 76 61 39 34 26 18 18 18 12 12 13 14 15 12 13 12 11 10 10 11 14 16
100 99 99 99 98 99 100 99 99 100 97 91 84 77 56 40 33 29 25 21 18 16 15 13 14 16 19 24 25 25 28 23 22 23 25 27 30 33
99 99 99 99 100 99 94 85 85 88 76 53 28 14 25 20 21 20 14 12 13 15 18 21 22 24 27 28 28 28 33 31 32 30 32 33 35 36
99 99 99 100 92 68 38 26 20 17 14 14 11 10 13 14 11 13 15 14 17 21 24 27 25 26 27 25 28 30 32 30 33 34 35 35 36 37
84 80 60 39 24 22 24 19 16 18 18 16 14 12 11 14 17 21 23 24 25 24 24 27 27 28 29 30 30 34 37 34 34 34 35 36 38 38
18 19 21 24 20 20 18 16 17 14 19 20 16 16 23 26 27 28 28 28 28 28 28 28 29 30 33 35 36 33 34 35 35 35 36 38 39 40
15 15 21 26 23 20 18 14 12 14 20 22 20 25 31 31 28 29 29 28 28 26 24 23 24 25 30 35 36 38 40 40 40 41 41 44 47 46
19 14 17 25 25 21 19 16 12 14 18 21 23 30 32 30 29 29 27 24 22 22 22 22 21 20 21 26 31 36 42 48 44 44 44 45 50 50
28 23 20 22 21 19 19 19 17 16 15 17 19 21 27 30 29 28 25 22 22 24 26 26 24 23 22 22 23 27 35 37 41 44 40 39 44 44
28 25 29 25 17 15 16 17 18 16 16 18 19 20 22 25 27 26 22 21 22 26 28 28 26 26 28 32 34 31 32 33 36 38 38 38 39 46
26 16 15 19 21 24 24 22 18 18 20 20 21 21 20 21 24 22 20 21 20 23 30 32 32 32 32 37 40 37 36 38 40 41 42 42 42 44
22 16 14 15 16 17 19 18 19 19 18 17 17 18 19 20 20 19 19 19 19 22 28 34 35 37 40 42 41 41 39 41 44 47 49 51 46 45
31 25 19 19 20 22 22 20 20 18 18 17 15 16 17 20 18 17 17 18 20 21 20 24 31 39 45 50 51 46 50 46 44 45 48 48 45 42
90 78 59 39 31 28 30 31 29 24 20 16 16 15 16 20 20 19 19 19 21 19 18 20 26 37 43 51 54 52 52 44 40 41 43 46 49 52
98 98 99 99 89 53 38 42 54 39 32 27 22 18 18 19 23 25 26 24 24 23 22 19 22 30 34 43 52 56 56 55 50 52 52 50 52 54

GFSNE_850_rhum_102.txt.gz
RH
37 38 40 40 47 50 64 64 77 100 99 96 100 99 96 100 99 100 98 92 95 83 73 78 84 99 99 97 98 81 81 87 98 100 91 91 96 93
43 43 44 47 52 48 53 63 79 99 100 100 98 88 96 95 100 100 99 99 96 90 95 99 99 96 96 98 96 98 100 100 100 100 96 98 92 93
57 53 53 54 55 59 59 62 76 99 100 100 100 98 100 100 100 100 99 99 98 93 99 100 100 95 91 100 100 100 100 100 100 100 100 100 100 97
55 56 58 56 59 64 69 74 89 98 98 100 100 100 100 100 100 100 99 98 99 98 100 100 99 97 95 90 90 100 99 99 100 99 98 98 98 94
57 57 61 62 64 70 74 81 94 98 97 98 96 100 100 100 99 100 98 99 100 95 100 100 95 86 84 90 87 84 86 83 86 86 87 84 92 82
61 62 63 65 73 77 84 94 98 98 99 99 99 99 99 99 100 100 99 100 97 93 95 93 84 77 73 86 90 90 86 86 86 82 77 76 77 78
65 69 69 74 94 98 99 100 100 100 98 99 97 97 97 98 98 99 99 100 94 80 72 59 45 38 38 42 60 73 78 78 82 83 84 82 80 78
71 71 76 99 98 98 98 99 100 100 99 100 97 97 98 97 98 100 100 98 84 62 49 31 22 20 18 14 13 12 18 30 48 63 72 74 68 55
78 89 98 98 98 99 98 97 98 98 100 100 100 100 100 100 97 99 93 82 60 41 18 22 21 16 14 15 14 10 9 9 9 8 7 8 7 8
99 100 99 99 98 99 99 99 99 98 99 100 99 100 97 89 77 85 68 52 36 27 19 16 14 14 18 21 21 21 20 17 16 14 14 16 20 22
100 99 99 99 99 99 100 98 96 98 98 95 95 92 78 52 45 35 26 24 21 16 15 17 17 19 26 27 25 25 29 28 28 27 29 30 32 33
99 99 99 100 99 97 86 68 55 37 20 16 13 14 16 22 26 23 19 15 14 14 17 25 24 26 28 26 27 27 27 28 32 33 34 34 34 35
99 98 99 92 64 42 23 24 21 19 21 21 21 18 17 19 16 13 16 15 17 22 28 29 26 27 27 27 26 28 29 31 30 31 33 34 34 35
60 29 24 24 24 23 20 22 21 16 20 23 20 17 16 16 21 22 23 25 25 26 27 28 29 29 30 30 30 28 30 31 31 31 33 33 32 33
42 25 16 19 25 25 20 22 20 14 19 23 26 22 27 31 30 27 28 29 28 29 28 27 26 26 29 30 29 29 31 32 33 35 36 35 36 37
59 30 20 16 22 23 23 24 20 15 20 25 29 31 30 32 32 32 32 30 29 26 24 23 23 23 23 22 22 23 26 33 32 34 37 36 37 39
69 36 31 24 19 21 19 22 21 20 17 21 27 25 29 34 34 33 31 29 27 24 23 24 29 29 27 24 23 23 24 24 29 33 33 34 37 42
69 33 25 29 24 19 17 19 20 20 19 20 21 23 28 29 30 32 30 28 25 24 24 26 30 30 30 31 36 37 35 30 28 28 30 31 32 38
58 28 21 19 20 20 23 28 25 26 23 22 22 24 26 26 27 27 29 28 25 23 23 26 31 33 32 35 40 44 44 38 34 34 35 35 36 40
89 40 23 18 18 19 21 22 22 23 24 22 20 20 21 23 24 23 22 23 23 21 22 24 28 33 36 38 40 43 44 45 39 38 38 40 39 38
99 75 40 30 27 24 23 25 26 25 24 22 19 19 18 19 19 20 21 21 22 21 18 16 17 31 39 42 40 39 47 53 52 48 42 40 39 38
99 99 99 98 96 85 56 40 32 32 31 27 22 20 20 20 18 18 20 21 22 20 17 17 19 25 30 32 31 34 41 54 53 49 46 45 44 43
100 99 99 99 99 99 99 99 94 62 44 42 39 35 29 25 22 22 22 23 26 27 25 23 22 26 26 27 26 29 35 46 55 56 55 52 58 65

GFSNE_850_rhum_105.txt.gz
RH
42 39 40 42 43 45 50 61 71 99 92 81 90 87 88 98 99 96 100 99 98 94 88 72 73 84 98 99 98 73 82 84 78 77 99 99 95 95
44 49 56 55 52 50 53 56 59 84 100 100 96 91 99 89 99 100 100 99 97 97 93 84 87 94 94 100 100 92 84 90 94 94 100 97 94 92
58 58 52 50 52 54 57 61 64 75 99 100 99 92 97 95 100 100 100 100 99 96 96 94 95 94 91 100 97 100 100 100 100 100 97 95 99 100
54 51 53 56 58 61 62 67 69 95 100 98 99 99 99 100 100 100 100 100 97 99 100 100 99 94 90 96 99 100 100 100 100 100 100 100 100 100
53 55 57 58 61 62 67 73 76 86 100 100 99 95 92 100 99 100 100 100 100 99 100 99 99 90 82 89 90 95 99 100 99 100 100 98 99 97
55 59 61 62 64 68 76 81 91 96 99 99 99 95 96 100 100 100 100 100 98 100 99 91 95 86 80 84 89 86 86 90 86 86 83 83 82 77
60 62 66 69 73 79 86 97 100 99 99 100 100 99 98 99 98 99 99 100 99 100 94 82 78 68 57 57 77 89 86 84 84 86 88 87 84 81
63 67 71 80 100 98 98 98 98 99 99 99 100 99 100 99 99 100 100 99 98 99 78 65 50 29 20 17 20 40 59 69 74 77 81 83 84 83
64 73 92 100 98 98 98 97 96 96 97 100 99 100 99 100 100 99 98 98 100 87 38 44 32 24 20 17 14 11 10 10 13 21 36 50 56 52
78 98 100 99 98 98 96 94 99 98 96 96 98 100 100 99 99 94 100 100 91 74 50 22 19 21 16 17 16 15 12 11 10 9 8 8 8 11
96 100 99 99 99 99 98 98 96 97 98 99 97 98 100 98 80 71 65 67 52 37 28 21 16 15 18 23 22 25 25 25 21 19 19 20 21 25
100 99 99 99 98 98 96 91 77 69 54 42 43 48 54 45 51 36 38 37 32 22 16 18 20 23 26 26 26 28 30 30 32 31 30 30 30 33
98 98 99 99 98 90 67 34 29 26 26 23 21 20 21 26 29 26 28 22 19 16 22 20 25 26 26 25 25 27 28 29 30 32 35 35 35 36
94 74 41 34 33 27 23 21 24 22 22 24 23 22 20 21 19 17 17 18 17 19 24 25 26 26 26 26 28 27 28 29 32 34 34 33 32 33
99 59 32 20 21 27 28 24 23 19 18 21 25 24 20 22 26 29 26 28 29 28 28 28 28 30 28 27 27 27 29 29 30 31 33 33 32 33
97 81 47 29 18 20 26 26 23 22 18 19 26 29 23 24 31 33 32 33 32 30 30 29 27 26 25 26 27 26 26 30 29 30 33 33 34 35
99 93 70 38 31 20 26 24 23 23 20 19 22 25 28 28 32 33 34 34 32 30 28 25 24 26 30 31 29 26 25 25 26 28 30 32 33 36
98 96 82 40 28 30 24 21 21 22 21 20 20 21 22 24 24 28 33 35 32 31 30 27 25 27 32 35 35 34 35 36 34 31 29 28 28 33
98 96 74 33 25 24 26 29 28 26 26 21 19 20 21 22 22 23 26 29 30 30 29 30 26 25 30 35 36 39 42 41 41 39 36 34 34 36
97 99 96 54 28 25 23 22 23 26 30 27 25 23 23 23 23 23 24 24 25 26 28 30 27 24 23 29 37 37 40 44 44 44 41 38 38 38
100 99 98 90 55 37 33 30 28 27 27 25 23 24 24 24 20 19 19 20 23 23 22 21 19 29 34 40 35 26 32 38 46 50 49 48 45 44
99 100 99 99 99 99 100 100 94 68 42 33 31 30 29 27 24 22 20 18 20 20 19 22 24 29 26 27 22 22 22 29 37 43 52 53 50 49
100 99 99 99 99 98 98 98 98 98 99 99 86 54 45 42 41 37 31 26 24 23 24 26 28 30 29 28 26 23 21 21 26 30 39 54 56 56

GFSNE_850_rhum_108.txt.gz
RH
54 40 43 42 44 45 49 49 60 83 72 92 84 70 84 86 95 99 100 99 99 99 99 85 84 77 77 83 99 89 74 77 66 76 88 99 99 98
51 46 44 51 57 55 52 53 58 66 96 92 91 93 92 92 98 89 97 99 99 100 96 88 89 81 86 99 100 84 84 84 79 84 85 99 99 95
47 49 58 58 54 52 54 57 62 67 92 99 100 99 96 95 89 88 99 100 100 100 97 92 94 87 89 97 98 99 90 97 89 82 99 100 99 98
59 60 56 52 52 52 56 60 64 75 87 98 100 99 100 89 99 99 100 100 100 100 99 98 98 87 91 94 98 100 100 100 100 100 100 100 100 100
58 54 54 54 54 55 59 66 72 80 90 100 99 99 100 92 92 98 100 100 100 100 99 98 99 87 82 87 94 99 99 100 100 100 100 100 100 100
56 56 57 57 57 59 66 72 78 86 92 100 99 98 98 95 97 99 100 100 100 100 99 99 98 83 85 70 81 89 91 95 94 96 98 99 100 98
57 56 57 58 59 64 72 85 88 95 99 99 100 100 99 99 99 100 100 100 100 100 99 99 91 84 68 59 75 86 85 87 90 89 91 90 86 82
59 59 59 64 72 79 96 98 96 97 98 98 100 100 100 100 100 100 100 100 99 99 99 96 76 60 40 26 28 59 88 87 86 86 85 86 86 88
60 63 67 77 96 96 97 97 94 94 94 97 100 100 100 100 100 100 100 100 100 97 84 83 66 47 26 21 17 14 16 37 57 66 68 75 80 83
65 72 83 98 99 98 96 95 94 95 96 96 99 100 100 100 100 100 99 99 99 99 97 54 28 23 23 19 16 13 11 10 10 9 10 16 28 33
71 77 96 100 99 98 97 99 95 92 94 97 94 99 100 100 100 100 95 100 100 99 78 46 25 19 17 16 17 19 22 16 14 13 12 10 10 12
80 91 98 99 98 98 97 98 93 85 78 67 68 80 88 97 99 90 71 84 86 55 32 32 19 18 18 19 21 24 26 27 27 24 22 22 24 28
88 92 99 99 98 98 94 87 60 39 34 31 26 20 21 28 32 47 44 44 43 40 18 18 17 23 24 25 23 27 30 29 29 29 32 31 32 35
90 90 81 57 60 62 42 24 19 21 22 22 24 24 23 23 26 26 28 26 24 22 18 26 24 30 27 25 24 25 26 27 28 30 32 32 34 36
91 93 77 39 24 20 23 26 20 20 19 18 23 25 22 18 19 20 18 18 22 21 21 25 28 33 31 33 30 28 27 28 28 30 32 32 32 32
92 92 91 62 35 19 20 24 25 24 23 19 21 26 26 22 24 28 30 30 32 32 30 30 30 30 30 30 29 30 30 30 28 28 29 31 32 33
97 97 94 87 52 34 22 27 26 24 24 21 23 28 28 29 28 33 33 35 33 32 31 31 30 27 26 28 30 31 30 28 27 28 29 29 30 31
96 95 94 96 72 38 32 25 24 22 23 25 26 26 28 30 30 29 32 36 38 36 34 31 28 25 25 29 35 34 32 31 32 33 34 34 33 30
96 97 100 100 72 36 30 30 31 28 24 22 22 23 24 25 26 26 28 31 31 32 33 32 30 28 26 25 28 34 35 36 38 38 39 40 39 36
99 98 99 100 87 43 30 27 27 28 29 31 30 30 29 24 24 24 25 26 27 27 28 29 29 28 26 24 24 24 32 38 40 43 42 42 42 40
99 99 99 98 98 83 51 37 34 30 30 30 29 28 27 27 24 23 22 22 24 25 23 20 19 28 35 35 27 18 19 28 36 41 44 47 46 44
100 99 100 100 99 98 98 99 99 97 88 65 44 36 34 34 33 31 29 27 23 21 19 21 23 25 28 28 22 19 18 18 24 33 38 43 48 50
100 100 99 99 99 99 98 98 98 98 99 99 99 98 97 77 54 49 49 46 39 33 29 27 25 26 28 26 27 26 22 22 20 21 22 26 31 38

GFSNE_850_rhum_111.txt.gz
RH
100 99 89 67 39 42 43 47 60 88 73 74 95 87 72 76 84 89 99 99 99 99 99 98 94 84 80 74 98 99 87 72 49 46 64 79 95 99
89 83 49 45 45 45 55 58 66 71 96 82 94 90 82 84 86 96 99 93 97 100 99 100 92 85 82 76 99 99 93 82 80 72 72 80 90 99
64 53 52 47 50 60 58 57 64 85 94 96 95 94 99 96 96 99 92 95 98 98 97 99 87 85 81 82 96 100 100 91 83 81 85 90 99 100
64 51 50 57 59 54 54 60 73 79 95 100 99 91 98 91 94 90 92 95 98 99 99 97 81 91 79 84 91 99 100 99 94 90 93 100 98 99
54 62 62 56 55 56 59 62 70 80 88 98 96 95 98 96 95 94 86 95 100 100 100 98 86 99 77 82 87 97 100 100 100 100 100 100 100 99
66 63 59 56 55 55 57 60 65 73 87 98 100 100 99 98 97 91 91 96 100 100 100 98 89 96 80 73 78 88 95 98 100 100 100 100 100 100
57 56 56 57 58 60 64 70 74 85 98 99 98 99 99 99 95 97 98 100 100 100 99 97 94 92 72 63 58 74 88 93 97 94 93 94 95 98
57 56 56 57 59 67 74 82 88 86 92 95 96 96 97 100 100 100 100 99 99 99 100 96 98 87 62 41 36 52 80 90 90 89 87 85 88 88
58 58 58 59 63 70 85 93 94 96 92 92 91 95 99 100 100 100 100 99 100 100 99 98 95 83 54 30 18 15 28 70 85 86 86 85 86 86
60 59 60 62 71 90 99 95 95 92 90 90 92 94 98 99 100 100 100 100 100 99 99 97 79 40 33 26 18 13 11 11 18 40 54 58 63 72
63 64 67 74 89 99 97 97 95 93 91 90 96 93 98 100 100 99 100 100 98 98 98 99 82 36 22 20 16 16 16 9 8 8 8 8 9 13
70 70 76 89 98 99 97 95 96 92 89 81 68 72 88 94 100 100 96 92 99 99 82 83 49 24 18 16 19 22 20 19 19 16 14 13 12 13
73 79 84 95 99 97 98 96 92 79 53 41 39 36 25 26 62 81 81 75 72 83 39 22 25 19 19 26 20 25 25 25 24 24 25 23 24 24
84 88 86 85 92 97 95 81 44 23 23 22 24 26 25 24 25 28 37 40 38 41 36 20 22 24 25 24 26 26 26 24 24 25 27 27 28 28
88 93 94 82 44 28 24 23 24 22 22 21 20 23 25 24 23 24 24 25 23 22 23 20 28 29 31 28 29 29 27 27 27 27 28 27 28 29
93 95 96 91 77 45 25 20 22 25 26 24 21 21 24 27 22 23 26 27 26 26 24 25 28 28 29 31 32 32 30 30 29 28 28 28 28 29
96 100 99 95 92 71 39 22 21 26 24 28 25 22 24 27 28 28 32 34 33 31 32 32 32 31 31 30 30 29 30 31 31 30 30 30 30 30
96 96 96 93 92 92 58 34 25 24 24 24 27 26 25 28 30 30 31 34 34 34 33 32 31 30 28 26 27 30 33 34 32 30 31 32 34 35
95 94 97 97 96 97 71 36 27 28 29 24 23 25 25 24 26 25 27 29 28 30 31 33 33 32 31 26 22 25 31 34 35 34 36 36 36 38
97 94 95 95 94 96 71 34 26 26 26 27 29 32 32 32 28 24 23 24 28 27 28 29 29 29 29 29 28 23 24 27 33 36 40 41 41 40
100 95 92 94 95 97 97 77 48 35 31 28 27 26 26 29 28 28 27 26 25 25 23 22 20 29 32 32 29 21 20 22 22 27 35 40 43 43
100 100 100 100 100 100 100 98 98 93 83 80 76 63 45 36 33 34 34 32 30 26 22 23 25 25 26 25 20 20 20 20 22 23 23 25 34 39
100 100 99 99 99 99 99 99 98 98 99 99 98 98 98 98 98 95 74 54 49 46 44 42 39 36 33 30 26 22 23 23 22 21 18 19 22 29

GFSNE_850_rhum_114.txt.gz
RH
99 100 100 100 95 87 52 43 46 57 68 72 90 87 85 85 80 83 87 98 93 96 96 99 98 93 86 73 72 79 93 82 75 59 40 45 72 85
99 100 97 96 86 49 46 46 55 63 76 75 82 90 89 81 76 76 85 99 93 86 91 96 92 94 81 76 74 86 100 84 82 75 48 51 67 81
99 96 90 78 49 50 49 57 60 59 69 86 80 87 98 97 85 86 95 93 88 91 97 99 96 93 79 77 72 91 98 96 83 80 73 67 77 90
100 96 62 57 51 54 60 57 56 66 70 76 88 99 100 98 85 95 94 92 91 92 99 96 97 81 84 80 72 92 100 99 94 75 83 81 84 96
79 65 58 53 62 60 56 56 58 67 71 74 98 100 98 99 98 96 92 92 85 93 99 97 93 81 88 76 77 90 99 100 100 88 97 99 100 90
66 56 64 64 62 58 54 56 60 64 66 94 100 99 99 98 98 98 94 90 93 91 100 99 94 83 93 71 71 82 96 99 100 100 100 100 100 100
65 66 61 54 54 55 56 58 61 66 74 94 98 98 97 98 98 99 94 92 96 96 98 97 89 88 96 69 61 64 88 95 97 100 100 100 100 100
64 57 56 56 56 57 61 69 75 79 82 93 96 92 93 96 98 98 98 99 94 90 96 93 96 92 98 66 44 39 73 90 94 95 91 95 91 94
58 59 59 58 57 60 66 74 83 89 90 91 91 91 91 97 99 99 99 99 97 97 100 96 92 96 94 63 35 18 18 57 90 91 89 92 88 93
61 59 56 54 58 62 70 84 90 93 94 91 90 91 89 94 97 100 100 98 98 98 100 99 93 94 52 39 31 19 15 14 24 74 90 89 86 85
62 58 60 63 67 73 82 93 94 93 92 90 88 90 89 84 91 96 99 99 99 98 98 98 96 95 55 21 20 17 13 10 11 11 19 28 46 57
60 66 68 69 74 89 98 99 99 95 92 90 84 77 75 84 90 98 98 99 100 98 99 98 95 90 23 15 15 15 16 15 12 11 9 9 10 10
66 67 72 78 83 95 98 99 97 92 88 70 53 48 46 37 45 85 96 99 98 99 75 31 38 36 25 18 17 16 20 22 23 24 20 17 15 13
69 72 78 82 82 82 83 89 89 77 42 23 21 24 26 24 23 26 37 52 62 74 75 60 26 22 19 18 23 23 22 26 26 25 26 24 25 25
73 77 80 83 84 73 43 29 25 22 22 21 22 21 21 24 24 25 29 32 36 39 39 37 25 28 27 26 26 24 25 26 26 25 26 26 28 28
81 82 85 85 84 85 68 40 26 20 21 24 25 21 19 26 27 24 23 24 23 22 24 22 22 23 29 30 29 27 32 29 29 28 27 26 26 26
87 83 80 82 87 88 88 60 31 20 23 28 26 25 24 28 28 29 27 31 33 31 32 32 32 31 30 29 29 29 29 29 30 31 31 29 28 28
94 88 84 86 89 90 90 88 49 29 25 30 26 27 28 28 30 30 32 30 34 35 34 34 34 33 31 28 27 26 26 30 32 33 32 30 31 31
94 92 93 91 94 95 93 96 83 34 36 30 27 25 26 26 27 24 26 28 28 30 34 37 38 36 33 26 24 24 24 27 32 34 34 34 34 35
96 98 98 98 94 93 95 97 62 34 29 30 32 32 32 32 31 29 26 24 24 27 30 28 30 29 28 32 33 29 28 25 24 26 34 36 38 38
99 100 100 99 95 93 95 97 98 71 46 35 29 28 29 30 30 31 32 30 30 27 24 22 24 32 31 32 27 20 21 25 26 25 22 25 32 36
100 100 100 99 99 99 99 100 99 99 97 84 66 64 66 58 44 37 36 36 38 37 34 34 38 37 33 27 20 19 18 20 22 25 24 24 25 30
100 100 100 99 99 99 99 99 100 99 98 98 98 98 98 97 97 98 98 97 96 85 68 58 56 58 51 45 41 40 35 35 38 34 25 25 24 26

GFSNE_850_rhum_117.txt.gz
RH
89 81 92 100 100 100 98 96 76 51 52 58 70 71 81 87 95 88 76 73 86 91 99 90 86 90 93 93 81 74 70 72 75 80 68 65 50 59
90 95 99 100 100 98 90 76 47 49 55 72 77 83 85 96 87 87 81 88 98 92 90 84 86 93 93 93 76 72 74 86 82 86 72 75 47 50
100 99 100 99 95 92 63 50 52 60 64 70 70 79 79 80 93 91 79 89 91 88 88 86 90 93 91 82 76 70 92 83 89 88 77 74 56 65
94 100 98 97 92 56 54 53 61 61 58 60 68 69 77 92 95 91 89 95 92 89 88 86 86 88 85 80 82 74 96 90 93 88 83 71 56 75
100 97 95 86 62 55 56 62 58 59 58 62 66 67 77 99 99 98 97 96 91 89 85 86 91 86 80 84 81 77 98 99 100 99 83 84 84 91
99 95 74 64 57 63 62 60 57 59 62 65 69 75 81 94 93 98 98 96 91 87 87 91 99 85 84 90 80 69 92 99 100 100 97 95 98 88
85 80 60 63 66 59 54 53 55 57 60 64 72 85 99 98 93 95 96 95 92 92 90 97 97 84 84 92 79 56 76 97 100 100 100 100 92 77
74 60 67 62 54 54 53 54 54 57 63 71 75 86 87 88 92 95 97 93 100 91 86 90 91 87 87 97 74 41 48 91 100 98 100 98 94 100
68 67 60 55 55 54 53 54 56 61 70 78 81 83 87 90 91 94 94 99 100 98 94 89 93 89 94 87 76 39 21 53 96 98 99 100 96 87
65 60 58 58 56 54 57 63 68 74 80 86 88 89 90 91 94 93 96 98 97 97 99 99 94 90 97 81 36 33 19 15 49 95 97 99 100 99
63 61 60 58 58 61 63 67 73 82 88 90 89 89 90 92 87 91 93 97 99 100 100 100 95 97 96 81 28 18 16 13 12 30 84 94 92 95
63 63 60 61 64 66 68 73 84 88 92 92 92 87 80 75 83 89 91 99 100 100 97 94 99 94 66 18 21 18 15 15 12 9 10 23 41 62
67 64 66 66 68 70 77 85 94 97 94 90 80 65 55 54 50 54 87 98 100 98 99 67 33 36 60 40 23 16 18 21 22 17 14 12 11 10
70 72 74 71 72 77 81 86 92 92 88 62 34 22 20 25 26 24 25 37 61 69 61 67 70 39 24 22 21 24 18 24 27 27 26 24 20 20
73 74 74 74 77 79 74 53 46 42 32 25 23 20 17 18 22 23 24 26 30 36 36 40 48 35 26 26 27 27 26 25 25 27 29 30 32 35
79 81 81 80 80 80 80 70 46 32 26 23 23 21 20 18 19 23 22 20 21 21 22 24 27 26 22 27 28 28 28 31 30 28 27 26 28 30
85 84 83 81 82 86 86 86 70 41 25 22 24 24 24 19 20 25 26 22 24 29 30 31 30 28 26 28 26 28 29 29 31 30 30 30 29 28
89 93 93 90 85 89 90 91 90 69 35 24 29 25 21 23 23 25 27 29 28 31 34 35 36 34 34 30 28 27 28 27 28 30 32 33 32 31
99 100 98 99 91 89 89 89 90 94 48 27 24 24 22 24 26 26 27 26 28 30 32 34 37 39 36 34 28 27 27 26 26 28 33 34 34 32
100 100 100 100 99 91 90 89 93 89 43 26 24 27 28 29 28 26 28 27 26 28 29 28 28 28 31 35 35 29 29 27 27 24 24 29 33 33
100 100 100 100 96 92 89 88 90 90 79 38 27 26 28 31 31 31 32 33 34 31 28 26 29 36 31 30 27 20 22 26 26 26 27 25 22 20
100 100 100 100 95 91 91 90 90 93 95 94 72 45 40 37 36 36 37 36 38 37 37 40 44 42 37 32 25 24 23 23 25 24 24 24 25 28
100 100 100 100 99 99 99 99 99 100 100 99 97 99 99 98 98 98 97 97 97 96 95 92 88 75 57 55 56 51 47 59 80 72 60 66 63 38

GFSNE_850_rhum_120.txt.gz
RH
81 82 85 85 90 92 100 100 99 93 85 58 63 62 66 74 78 74 77 77 72 73 93 98 90 85 85 89 90 88 77 70 67 68 75 86 82 62
92 83 85 65 93 100 100 100 100 91 55 55 59 65 70 78 80 81 71 76 76 92 92 89 89 89 92 93 91 81 72 74 78 77 90 80 72 80
93 96 74 80 96 100 100 92 87 50 51 57 66 71 76 77 78 76 74 73 74 85 89 91 90 86 87 89 85 77 69 99 87 78 88 80 74 64
94 76 82 91 100 100 95 83 52 54 59 66 68 72 74 68 64 65 67 72 77 90 91 90 88 84 82 81 81 83 78 98 96 82 83 78 67 65
84 87 89 95 100 92 76 57 56 63 62 62 62 68 71 71 68 68 72 70 83 93 91 88 87 87 84 83 87 83 74 99 100 99 98 89 78 68
100 98 99 100 93 74 66 59 63 62 60 57 59 60 64 70 68 75 77 79 90 94 90 90 86 85 84 83 86 84 68 100 98 99 100 100 97 88
100 100 100 94 69 61 64 64 58 55 56 57 59 63 67 73 80 82 82 91 94 91 88 87 85 86 85 85 90 86 54 94 97 100 100 100 95 89
100 99 83 76 68 67 61 56 56 57 57 58 63 66 73 74 78 82 91 92 92 94 88 87 89 84 82 85 95 86 40 78 94 100 100 100 100 100
97 87 73 67 68 58 55 54 53 52 55 63 67 72 76 76 82 86 90 89 93 98 98 91 86 85 87 90 85 69 39 34 91 96 100 100 96 100
80 69 73 71 60 58 56 54 55 59 67 73 76 79 80 81 84 86 88 92 93 98 99 99 93 91 90 98 90 33 32 18 41 94 95 91 99 100
75 78 70 64 61 58 56 60 63 69 76 81 81 84 85 84 87 85 86 88 97 99 100 100 94 96 99 92 78 32 17 16 14 29 89 96 95 98
75 68 65 64 62 58 61 62 66 74 77 84 86 86 84 82 80 84 91 99 100 100 99 99 77 83 83 21 19 21 17 15 12 11 24 76 97 97
72 68 66 65 63 65 63 64 72 78 85 88 87 84 78 72 67 65 72 99 100 100 98 99 81 41 40 50 24 22 17 18 19 12 10 11 20 48
73 72 72 71 71 69 68 72 77 84 88 86 81 63 36 24 28 30 28 34 55 91 99 88 71 70 34 22 20 22 19 20 24 24 21 18 14 11
77 79 78 78 77 75 77 75 67 65 67 56 32 22 22 20 20 24 25 26 28 33 39 39 48 51 38 26 26 27 28 28 24 24 25 26 25 22
85 84 84 83 81 79 78 76 68 50 39 31 24 20 20 19 20 22 23 23 23 23 25 28 29 30 29 24 26 30 28 33 31 30 27 25 26 28
92 91 85 82 82 80 80 78 78 71 52 31 22 22 24 24 20 20 25 25 24 28 30 28 28 28 24 21 23 28 30 30 32 32 32 31 30 28
97 94 87 86 86 87 96 87 86 86 74 36 24 30 25 23 24 23 26 27 28 29 34 35 36 34 32 31 30 30 30 29 30 29 29 30 32 32
100 100 94 93 97 100 99 98 93 89 90 61 30 23 25 26 22 25 27 28 30 30 30 34 37 35 33 31 32 31 29 26 25 25 26 29 33 35
99 99 99 100 100 100 100 100 96 94 89 87 36 30 28 26 23 24 25 24 26 25 28 28 27 29 31 33 31 30 31 29 27 27 26 25 24 29
100 100 100 100 100 100 100 99 98 93 93 71 31 27 28 30 29 30 31 33 32 32 30 28 33 30 29 28 27 23 25 26 26 25 24 24 23 21
100 100 100 100 100 99 99 99 96 95 94 93 74 48 35 32 28 28 29 31 30 32 34 38 40 35 32 30 26 27 26 28 31 28 26 25 23 23
100 100 99 99 99 100 99 99 95 97 99 100 100 97 94 81 61 73 89 94 95 93 89 82 67 52 49 51 55 55 57 62 54 56 75 91 86 70

GFSNE_850_rhum_123.txt.gz
RH
75 70 68 67 82 88 92 95 93 99 97 90 90 74 56 61 68 64 65 70 61 67 69 68 82 84 86 86 92 89 86 77 66 67 71 79 82 70
76 77 77 86 88 94 92 92 99 100 100 96 74 56 59 63 68 72 72 66 69 72 79 85 88 89 88 87 88 87 78 70 82 76 80 79 73 62
81 80 83 85 93 86 77 76 98 100 99 88 56 58 65 70 75 79 68 64 61 67 74 84 88 90 87 85 83 83 76 75 99 86 82 76 74 66
89 91 92 85 100 99 94 85 99 100 77 57 58 65 70 74 72 64 60 60 63 70 75 89 89 88 85 84 82 84 77 87 100 80 88 83 72 58
91 91 95 85 91 96 96 100 100 73 58 59 65 65 66 64 64 61 64 67 69 72 88 90 88 88 87 84 83 83 73 90 99 98 97 85 80 65
100 100 98 89 99 89 100 100 72 60 60 65 63 60 59 63 62 67 66 71 71 79 86 90 88 87 85 86 85 85 77 86 100 100 100 90 82 94
100 100 100 90 100 100 99 74 66 64 64 57 56 59 60 62 66 66 71 72 76 84 88 87 86 84 82 83 83 86 80 72 100 100 100 98 100 100
99 100 99 99 99 99 77 65 68 62 58 58 59 56 59 62 64 68 70 75 83 89 91 87 85 82 82 82 84 92 77 48 95 99 100 100 98 100
100 98 100 100 94 78 70 70 60 57 55 56 55 59 61 64 69 71 76 81 86 90 90 87 86 85 84 85 87 90 59 33 81 100 100 99 100 96
99 98 100 94 84 75 69 62 63 56 54 58 62 63 67 71 74 77 80 85 90 90 94 93 89 88 89 89 96 92 34 31 39 89 97 99 100 100
100 97 88 73 73 80 82 73 60 57 62 68 65 70 73 77 79 81 82 85 88 89 97 100 97 90 83 83 88 80 28 19 16 46 92 99 98 95
93 82 81 86 86 84 71 63 61 65 70 69 70 76 81 82 81 83 86 86 93 99 97 100 96 85 71 30 24 35 21 17 14 13 48 91 99 100
89 83 80 74 72 68 64 66 71 75 71 68 75 80 83 83 81 76 73 82 97 100 99 100 94 91 46 37 34 22 20 18 16 10 11 41 88 99
84 83 77 73 71 69 68 72 69 66 67 72 81 82 80 74 59 45 40 42 46 85 100 100 99 77 78 29 21 22 19 23 22 19 14 11 12 30
86 82 80 77 75 74 74 72 66 67 70 72 74 73 51 33 24 21 22 23 25 27 33 41 42 47 62 40 26 30 31 22 25 26 26 23 19 17
87 84 82 82 81 82 81 78 69 70 63 58 55 35 25 22 20 19 21 21 22 23 24 27 34 37 42 35 28 34 31 34 30 28 28 26 24 24
93 91 92 90 85 82 82 78 76 73 69 57 43 32 25 22 22 21 18 21 22 22 23 24 23 26 26 24 22 29 33 32 33 33 35 31 29 27
99 99 98 94 89 86 82 80 78 76 76 69 44 28 23 26 25 22 21 25 25 27 30 34 34 34 36 34 32 32 30 31 31 30 30 30 31 32
99 99 100 99 94 89 90 93 90 88 97 85 67 32 28 33 26 24 25 26 29 32 32 35 37 37 36 36 34 32 29 27 28 27 26 26 29 33
99 100 99 100 100 99 99 100 100 100 98 94 97 58 28 29 23 23 26 29 31 35 34 32 32 34 36 36 34 33 33 32 30 28 27 26 24 24
99 100 100 100 100 100 100 100 100 100 100 98 94 85 35 30 27 26 27 27 30 29 28 27 29 27 30 28 28 29 31 29 27 25 23 22 21 20
100 100 99 100 100 100 100 100 99 99 99 98 98 61 32 30 29 30 31 33 33 36 41 38 33 31 32 30 29 28 28 30 29 27 25 22 20 18
100 99 99 100 100 99 99 99 99 99 99 99 99 81 50 41 34 31 37 39 40 38 39 41 44 44 44 41 40 40 44 51 49 60 63 54 60 71